<?xml version="1.0" encoding="UTF-8" standalone="no" ?>
<gpx xmlns="http://www.topografix.com/GPX/1/1" xmlns:xsi="http://www.w3.org/2001/XMLSchema-instance" xsi:schemaLocation="http://www.topografix.com/GPX/1/1 http://www.topografix.com/GPX/1/1/gpx.xsd" version="1.1" creator="VisuGPX - https://www.visugpx.com">
  <metadata>
    <name>VOIE ARVERNE.</name>
    <desc><![CDATA[Première étape de la "Voie Arverne" (document d'étude)]]></desc>
  </metadata>
  <trk>
    <name><![CDATA[t16872 via arverna clermont ferrand BON-MNT]]></name>
    <trkseg>
      <trkpt lat="45.77918" lon="3.10026">
        <ele>359.663757</ele>
      </trkpt>
      <trkpt lat="45.77869" lon="3.09924">
        <ele>359.480011</ele>
      </trkpt>
      <trkpt lat="45.77882" lon="3.0991">
        <ele>359.769989</ele>
        <time>2012-01-01T01:00:00Z</time>
      </trkpt>
      <trkpt lat="45.77886" lon="3.09901">
        <ele>359.871246</ele>
        <time>2012-01-01T01:00:00Z</time>
      </trkpt>
      <trkpt lat="45.779" lon="3.09773">
        <ele>363.013763</ele>
        <time>2012-01-01T01:00:00Z</time>
      </trkpt>
      <trkpt lat="45.77904" lon="3.09717">
        <ele>363.882507</ele>
        <time>2012-01-01T01:00:00Z</time>
      </trkpt>
      <trkpt lat="45.77911" lon="3.09657">
        <ele>365.637512</ele>
        <time>2012-01-01T01:00:00Z</time>
      </trkpt>
      <trkpt lat="45.77917" lon="3.09595">
        <ele>366.787506</ele>
        <time>2012-01-01T01:00:00Z</time>
      </trkpt>
      <trkpt lat="45.77918" lon="3.09573">
        <ele>367.23999</ele>
        <time>2012-01-01T01:00:00Z</time>
      </trkpt>
      <trkpt lat="45.77926" lon="3.09492">
        <ele>369.769989</ele>
        <time>2012-01-01T01:00:00Z</time>
      </trkpt>
      <trkpt lat="45.77928" lon="3.09475">
        <ele>370.285004</ele>
        <time>2012-01-01T01:00:00Z</time>
      </trkpt>
      <trkpt lat="45.77935" lon="3.09418">
        <ele>371.545013</ele>
        <time>2012-01-01T01:00:00Z</time>
      </trkpt>
      <trkpt lat="45.77936" lon="3.09407">
        <ele>371.712494</ele>
        <time>2012-01-01T01:00:00Z</time>
      </trkpt>
      <trkpt lat="45.77938" lon="3.09399">
        <ele>371.827515</ele>
        <time>2012-01-01T01:00:00Z</time>
      </trkpt>
      <trkpt lat="45.77948" lon="3.09268">
        <ele>375.60257</ele>
        <time>2012-01-01T01:00:00Z</time>
      </trkpt>
      <trkpt lat="45.77942" lon="3.09267">
        <ele>375.764679</ele>
      </trkpt>
      <trkpt lat="45.77941" lon="3.09245">
        <ele>376.44751</ele>
      </trkpt>
      <trkpt lat="45.77951" lon="3.09223">
        <ele>376.925018</ele>
      </trkpt>
      <trkpt lat="45.77983" lon="3.09166">
        <ele>378.019989</ele>
        <time>2012-01-01T01:00:00Z</time>
      </trkpt>
      <trkpt lat="45.77985" lon="3.0916">
        <ele>378.174988</ele>
        <time>2012-01-01T01:00:00Z</time>
      </trkpt>
      <trkpt lat="45.77987" lon="3.0915">
        <ele>378.429993</ele>
        <time>2012-01-01T01:00:00Z</time>
      </trkpt>
      <trkpt lat="45.77989" lon="3.09131">
        <ele>379</ele>
        <time>2012-01-01T01:00:00Z</time>
      </trkpt>
      <trkpt lat="45.77982" lon="3.09104">
        <ele>380.42749</ele>
      </trkpt>
      <trkpt lat="45.77962" lon="3.09084">
        <ele>381.785004</ele>
      </trkpt>
      <trkpt lat="45.77905" lon="3.09041">
        <ele>384.123779</ele>
      </trkpt>
      <trkpt lat="45.77876" lon="3.09028">
        <ele>385.279999</ele>
      </trkpt>
      <trkpt lat="45.77848" lon="3.09024">
        <ele>385.994293</ele>
      </trkpt>
      <trkpt lat="45.77848" lon="3.08995">
        <ele>387.484985</ele>
      </trkpt>
      <trkpt lat="45.77853" lon="3.0894">
        <ele>390.862488</ele>
      </trkpt>
      <trkpt lat="45.77852" lon="3.08862">
        <ele>395.89975</ele>
      </trkpt>
      <trkpt lat="45.77862" lon="3.08855">
        <ele>396.198761</ele>
      </trkpt>
      <trkpt lat="45.77877" lon="3.08787">
        <ele>400.191559</ele>
      </trkpt>
      <trkpt lat="45.77862" lon="3.08773">
        <ele>400.565735</ele>
      </trkpt>
      <trkpt lat="45.77845" lon="3.08744">
        <ele>401</ele>
      </trkpt>
      <trkpt lat="45.77845" lon="3.08696">
        <ele>401</ele>
      </trkpt>
      <trkpt lat="45.77848" lon="3.08663">
        <ele>401</ele>
      </trkpt>
      <trkpt lat="45.77847" lon="3.08597">
        <ele>401</ele>
      </trkpt>
      <trkpt lat="45.7776" lon="3.08613">
        <ele>402.131805</ele>
      </trkpt>
      <trkpt lat="45.77757" lon="3.08632">
        <ele>402.19751</ele>
      </trkpt>
      <trkpt lat="45.77751" lon="3.08656">
        <ele>402.327515</ele>
      </trkpt>
      <trkpt lat="45.77754" lon="3.08691">
        <ele>402.0625</ele>
      </trkpt>
      <trkpt lat="45.77746" lon="3.08704">
        <ele>402.040009</ele>
      </trkpt>
      <trkpt lat="45.7771" lon="3.08704">
        <ele>402.602509</ele>
      </trkpt>
      <trkpt lat="45.77685" lon="3.08719">
        <ele>402.363739</ele>
      </trkpt>
      <trkpt lat="45.77661" lon="3.08723">
        <ele>402.380066</ele>
      </trkpt>
      <trkpt lat="45.77603" lon="3.08722">
        <ele>402.413269</ele>
      </trkpt>
      <trkpt lat="45.77602" lon="3.087">
        <ele>402.873505</ele>
      </trkpt>
      <trkpt lat="45.77576" lon="3.087">
        <ele>402.557159</ele>
      </trkpt>
      <trkpt lat="45.77561" lon="3.08686">
        <ele>402.748108</ele>
      </trkpt>
      <trkpt lat="45.77427" lon="3.08687">
        <ele>397.970001</ele>
      </trkpt>
      <trkpt lat="45.77397" lon="3.08686">
        <ele>397.085083</ele>
      </trkpt>
      <trkpt lat="45.77379" lon="3.08706">
        <ele>395.615723</ele>
      </trkpt>
      <trkpt lat="45.77363" lon="3.08707">
        <ele>395.023407</ele>
      </trkpt>
      <trkpt lat="45.77356" lon="3.08726">
        <ele>394.188507</ele>
      </trkpt>
      <trkpt lat="45.7735" lon="3.08765">
        <ele>391.825012</ele>
      </trkpt>
      <trkpt lat="45.77344" lon="3.08774">
        <ele>391.005005</ele>
      </trkpt>
      <trkpt lat="45.77322" lon="3.08777">
        <ele>389.839996</ele>
      </trkpt>
      <trkpt lat="45.77292" lon="3.08811">
        <ele>385.774048</ele>
      </trkpt>
      <trkpt lat="45.77212" lon="3.08827">
        <ele>380.14624</ele>
      </trkpt>
      <trkpt lat="45.77191" lon="3.08825">
        <ele>379.282501</ele>
      </trkpt>
      <trkpt lat="45.77174" lon="3.08818">
        <ele>379.050232</ele>
      </trkpt>
      <trkpt lat="45.77131" lon="3.0879">
        <ele>379.181152</ele>
      </trkpt>
      <trkpt lat="45.77109" lon="3.08756">
        <ele>379.353577</ele>
      </trkpt>
      <trkpt lat="45.771" lon="3.08728">
        <ele>379.537964</ele>
      </trkpt>
      <trkpt lat="45.77098" lon="3.08698">
        <ele>379.986755</ele>
      </trkpt>
      <trkpt lat="45.7709" lon="3.08677">
        <ele>379.850006</ele>
      </trkpt>
      <trkpt lat="45.77004" lon="3.08666">
        <ele>377.079987</ele>
      </trkpt>
      <trkpt lat="45.76863" lon="3.08657">
        <ele>377</ele>
      </trkpt>
      <trkpt lat="45.76817" lon="3.08661">
        <ele>377.006531</ele>
      </trkpt>
      <trkpt lat="45.76731" lon="3.08663">
        <ele>377.028748</ele>
      </trkpt>
      <trkpt lat="45.7665" lon="3.08651">
        <ele>377.831421</ele>
      </trkpt>
      <trkpt lat="45.76599" lon="3.0865">
        <ele>380.439301</ele>
      </trkpt>
      <trkpt lat="45.76519" lon="3.08655">
        <ele>384.144196</ele>
      </trkpt>
      <trkpt lat="45.76416" lon="3.08666">
        <ele>387.34729</ele>
      </trkpt>
      <trkpt lat="45.76379" lon="3.08664">
        <ele>389.128906</ele>
      </trkpt>
      <trkpt lat="45.76329" lon="3.0866">
        <ele>390.058746</ele>
      </trkpt>
      <trkpt lat="45.76271" lon="3.08657">
        <ele>390.938538</ele>
      </trkpt>
      <trkpt lat="45.76236" lon="3.08669">
        <ele>392.005005</ele>
      </trkpt>
      <trkpt lat="45.76193" lon="3.08695">
        <ele>395.470001</ele>
      </trkpt>
      <trkpt lat="45.76155" lon="3.08716">
        <ele>398.374786</ele>
      </trkpt>
      <trkpt lat="45.76119" lon="3.08728">
        <ele>401.049103</ele>
      </trkpt>
      <trkpt lat="45.76085" lon="3.08736">
        <ele>403.401245</ele>
      </trkpt>
      <trkpt lat="45.76053" lon="3.08738">
        <ele>405.09317</ele>
      </trkpt>
      <trkpt lat="45.76019" lon="3.08732">
        <ele>406.486267</ele>
      </trkpt>
      <trkpt lat="45.75991" lon="3.08723">
        <ele>408.009796</ele>
      </trkpt>
      <trkpt lat="45.75965" lon="3.08711">
        <ele>409.413116</ele>
      </trkpt>
      <trkpt lat="45.75916" lon="3.08673">
        <ele>409.557983</ele>
      </trkpt>
      <trkpt lat="45.75902" lon="3.08664">
        <ele>410.276001</ele>
      </trkpt>
      <trkpt lat="45.75883" lon="3.08664">
        <ele>411.811615</ele>
      </trkpt>
      <trkpt lat="45.75857" lon="3.08668">
        <ele>414.092499</ele>
      </trkpt>
      <trkpt lat="45.75835" lon="3.08663">
        <ele>415.881409</ele>
      </trkpt>
      <trkpt lat="45.75805" lon="3.08656">
        <ele>417.792511</ele>
      </trkpt>
      <trkpt lat="45.75659" lon="3.08708">
        <ele>424.82251</ele>
      </trkpt>
      <trkpt lat="45.75578" lon="3.08731">
        <ele>427.230011</ele>
      </trkpt>
      <trkpt lat="45.75487" lon="3.08763">
        <ele>429.776001</ele>
      </trkpt>
      <trkpt lat="45.75446" lon="3.0877">
        <ele>431.118927</ele>
      </trkpt>
      <trkpt lat="45.75391" lon="3.08787">
        <ele>432.76001</ele>
      </trkpt>
      <trkpt lat="45.75363" lon="3.08795">
        <ele>433.380005</ele>
      </trkpt>
      <trkpt lat="45.75339" lon="3.08795">
        <ele>433.922485</ele>
      </trkpt>
      <trkpt lat="45.75315" lon="3.08779">
        <ele>434.457489</ele>
      </trkpt>
      <trkpt lat="45.75215" lon="3.08713">
        <ele>436.642548</ele>
      </trkpt>
      <trkpt lat="45.75184" lon="3.08698">
        <ele>437.390015</ele>
      </trkpt>
      <trkpt lat="45.75101" lon="3.0867">
        <ele>439.37619</ele>
      </trkpt>
      <trkpt lat="45.75097" lon="3.08717">
        <ele>439.215912</ele>
      </trkpt>
      <trkpt lat="45.75057" lon="3.08713">
        <ele>439.545135</ele>
      </trkpt>
      <trkpt lat="45.75047" lon="3.08706">
        <ele>439.56076</ele>
      </trkpt>
      <trkpt lat="45.75014" lon="3.08711">
        <ele>437.493378</ele>
      </trkpt>
      <trkpt lat="45.7501" lon="3.08691">
        <ele>437.959595</ele>
      </trkpt>
      <trkpt lat="45.75005" lon="3.08662">
        <ele>439.246613</ele>
      </trkpt>
      <trkpt lat="45.75011" lon="3.08631">
        <ele>441.663452</ele>
      </trkpt>
      <trkpt lat="45.75043" lon="3.08623">
        <ele>442.208557</ele>
      </trkpt>
      <trkpt lat="45.75025" lon="3.08564">
        <ele>442.924286</ele>
      </trkpt>
      <trkpt lat="45.75019" lon="3.08556">
        <ele>442.770477</ele>
      </trkpt>
      <trkpt lat="45.7501" lon="3.08551">
        <ele>441.985474</ele>
      </trkpt>
      <trkpt lat="45.7498" lon="3.08553">
        <ele>439.561371</ele>
      </trkpt>
      <trkpt lat="45.74973" lon="3.08538">
        <ele>438.720764</ele>
      </trkpt>
      <trkpt lat="45.74969" lon="3.0852">
        <ele>438.383728</ele>
      </trkpt>
      <trkpt lat="45.74953" lon="3.08523">
        <ele>435.33844</ele>
      </trkpt>
      <trkpt lat="45.74941" lon="3.08506">
        <ele>433.547485</ele>
      </trkpt>
      <trkpt lat="45.74931" lon="3.08499">
        <ele>432.019196</ele>
      </trkpt>
      <trkpt lat="45.74922" lon="3.08498">
        <ele>431.030518</ele>
      </trkpt>
      <trkpt lat="45.74912" lon="3.08503">
        <ele>429.73172</ele>
      </trkpt>
      <trkpt lat="45.74891" lon="3.08511">
        <ele>427.380768</ele>
      </trkpt>
      <trkpt lat="45.74859" lon="3.08537">
        <ele>425.859314</ele>
      </trkpt>
      <trkpt lat="45.74847" lon="3.0854">
        <ele>425.564301</ele>
      </trkpt>
      <trkpt lat="45.74786" lon="3.08541">
        <ele>424.369293</ele>
      </trkpt>
      <trkpt lat="45.74804" lon="3.0864">
        <ele>423.764038</ele>
      </trkpt>
      <trkpt lat="45.74806" lon="3.08667">
        <ele>422.38562</ele>
      </trkpt>
      <trkpt lat="45.74798" lon="3.08729">
        <ele>420.079987</ele>
      </trkpt>
      <trkpt lat="45.74688" lon="3.08706">
        <ele>422.323761</ele>
      </trkpt>
      <trkpt lat="45.74666" lon="3.08706">
        <ele>422.809998</ele>
      </trkpt>
      <trkpt lat="45.74655" lon="3.08713">
        <ele>422.950012</ele>
      </trkpt>
      <trkpt lat="45.74575" lon="3.08775">
        <ele>423.733765</ele>
      </trkpt>
      <trkpt lat="45.74565" lon="3.08773">
        <ele>423.982513</ele>
      </trkpt>
      <trkpt lat="45.74556" lon="3.08768">
        <ele>424.248749</ele>
      </trkpt>
      <trkpt lat="45.74546" lon="3.08771">
        <ele>424.438751</ele>
      </trkpt>
      <trkpt lat="45.74539" lon="3.0878">
        <ele>424.441254</ele>
      </trkpt>
      <trkpt lat="45.74537" lon="3.08795">
        <ele>424.265015</ele>
      </trkpt>
      <trkpt lat="45.74535" lon="3.08807">
        <ele>424.105011</ele>
      </trkpt>
      <trkpt lat="45.74468" lon="3.08905">
        <ele>426.669952</ele>
      </trkpt>
      <trkpt lat="45.74456" lon="3.08893">
        <ele>427.561829</ele>
      </trkpt>
      <trkpt lat="45.74445" lon="3.08875">
        <ele>428.133057</ele>
      </trkpt>
      <trkpt lat="45.74357" lon="3.08864">
        <ele>431.092499</ele>
      </trkpt>
      <trkpt lat="45.74184" lon="3.08818">
        <ele>439.837494</ele>
      </trkpt>
      <trkpt lat="45.74086" lon="3.08783">
        <ele>449.871857</ele>
      </trkpt>
      <trkpt lat="45.74037" lon="3.08774">
        <ele>454.247803</ele>
      </trkpt>
      <trkpt lat="45.74019" lon="3.0878">
        <ele>456.520813</ele>
      </trkpt>
      <trkpt lat="45.74006" lon="3.088">
        <ele>459.226105</ele>
      </trkpt>
      <trkpt lat="45.73995" lon="3.08806">
        <ele>460.992889</ele>
      </trkpt>
      <trkpt lat="45.73984" lon="3.0881">
        <ele>462.704712</ele>
      </trkpt>
      <trkpt lat="45.7397" lon="3.08824">
        <ele>466.594604</ele>
      </trkpt>
      <trkpt lat="45.7397" lon="3.08847">
        <ele>468.775604</ele>
      </trkpt>
      <trkpt lat="45.73966" lon="3.08863">
        <ele>470.972321</ele>
      </trkpt>
      <trkpt lat="45.73944" lon="3.08873">
        <ele>475.570282</ele>
      </trkpt>
      <trkpt lat="45.73894" lon="3.08892">
        <ele>484.632355</ele>
      </trkpt>
      <trkpt lat="45.73847" lon="3.08907">
        <ele>491.15625</ele>
      </trkpt>
      <trkpt lat="45.73822" lon="3.08913">
        <ele>494.45993</ele>
      </trkpt>
      <trkpt lat="45.73806" lon="3.08914">
        <ele>496.443726</ele>
      </trkpt>
      <trkpt lat="45.73788" lon="3.08908">
        <ele>498.368744</ele>
      </trkpt>
      <trkpt lat="45.73776" lon="3.08904">
        <ele>499.633759</ele>
      </trkpt>
      <trkpt lat="45.73762" lon="3.08899">
        <ele>501.070007</ele>
      </trkpt>
      <trkpt lat="45.73749" lon="3.08901">
        <ele>502.601196</ele>
      </trkpt>
      <trkpt lat="45.73717" lon="3.08916">
        <ele>506.221527</ele>
      </trkpt>
      <trkpt lat="45.7369" lon="3.08935">
        <ele>507.925873</ele>
      </trkpt>
      <trkpt lat="45.73663" lon="3.08944">
        <ele>509.434998</ele>
      </trkpt>
      <trkpt lat="45.73657" lon="3.08911">
        <ele>511.031982</ele>
      </trkpt>
      <trkpt lat="45.73622" lon="3.08908">
        <ele>513.859192</ele>
      </trkpt>
      <trkpt lat="45.73594" lon="3.08909">
        <ele>515.332275</ele>
      </trkpt>
      <trkpt lat="45.73555" lon="3.08915">
        <ele>517.42749</ele>
      </trkpt>
      <trkpt lat="45.73505" lon="3.08923">
        <ele>521.549988</ele>
      </trkpt>
      <trkpt lat="45.73495" lon="3.0893">
        <ele>522.210022</ele>
      </trkpt>
      <trkpt lat="45.73466" lon="3.08963">
        <ele>525.615417</ele>
      </trkpt>
      <trkpt lat="45.7344" lon="3.08989">
        <ele>528.402283</ele>
      </trkpt>
      <trkpt lat="45.73421" lon="3.09001">
        <ele>530.311646</ele>
      </trkpt>
      <trkpt lat="45.73408" lon="3.09003">
        <ele>532.024292</ele>
      </trkpt>
      <trkpt lat="45.73375" lon="3.08996">
        <ele>536.444641</ele>
      </trkpt>
      <trkpt lat="45.73351" lon="3.08996">
        <ele>539.108154</ele>
      </trkpt>
      <trkpt lat="45.73297" lon="3.09003">
        <ele>540.803406</ele>
      </trkpt>
      <trkpt lat="45.73271" lon="3.09006">
        <ele>539.364197</ele>
      </trkpt>
      <trkpt lat="45.73211" lon="3.09023">
        <ele>531.254761</ele>
      </trkpt>
      <trkpt lat="45.73184" lon="3.09034">
        <ele>528.194458</ele>
      </trkpt>
      <trkpt lat="45.73141" lon="3.09058">
        <ele>526.644836</ele>
      </trkpt>
      <trkpt lat="45.73113" lon="3.09073">
        <ele>527.94165</ele>
      </trkpt>
      <trkpt lat="45.73091" lon="3.09163">
        <ele>522.205566</ele>
      </trkpt>
      <trkpt lat="45.73084" lon="3.09216">
        <ele>517.447571</ele>
      </trkpt>
      <trkpt lat="45.73074" lon="3.09256">
        <ele>513.38501</ele>
      </trkpt>
      <trkpt lat="45.73059" lon="3.09287">
        <ele>509.850006</ele>
      </trkpt>
      <trkpt lat="45.73042" lon="3.09312">
        <ele>506.98999</ele>
      </trkpt>
      <trkpt lat="45.73013" lon="3.0935">
        <ele>502.491577</ele>
      </trkpt>
      <trkpt lat="45.72978" lon="3.09406">
        <ele>494.57547</ele>
      </trkpt>
      <trkpt lat="45.72945" lon="3.09453">
        <ele>486.200592</ele>
      </trkpt>
      <trkpt lat="45.72922" lon="3.09485">
        <ele>480.005127</ele>
      </trkpt>
      <trkpt lat="45.72894" lon="3.09506">
        <ele>475.10788</ele>
      </trkpt>
      <trkpt lat="45.72904" lon="3.09544">
        <ele>472.720795</ele>
      </trkpt>
      <trkpt lat="45.72904" lon="3.09558">
        <ele>471.622498</ele>
      </trkpt>
      <trkpt lat="45.72899" lon="3.09568">
        <ele>470.653198</ele>
      </trkpt>
      <trkpt lat="45.72867" lon="3.09606">
        <ele>471.747406</ele>
      </trkpt>
      <trkpt lat="45.72863" lon="3.09622">
        <ele>472.154907</ele>
      </trkpt>
      <trkpt lat="45.72873" lon="3.0964">
        <ele>471.48938</ele>
      </trkpt>
      <trkpt lat="45.72879" lon="3.09658">
        <ele>471.230316</ele>
      </trkpt>
      <trkpt lat="45.72882" lon="3.09678">
        <ele>471.09</ele>
      </trkpt>
      <trkpt lat="45.72885" lon="3.09693">
        <ele>471</ele>
      </trkpt>
      <trkpt lat="45.72874" lon="3.097">
        <ele>471</ele>
      </trkpt>
      <trkpt lat="45.72878" lon="3.0974">
        <ele>471</ele>
      </trkpt>
      <trkpt lat="45.72882" lon="3.09769">
        <ele>471</ele>
      </trkpt>
      <trkpt lat="45.72892" lon="3.09788">
        <ele>471</ele>
      </trkpt>
      <trkpt lat="45.72893" lon="3.09796">
        <ele>470.966553</ele>
      </trkpt>
      <trkpt lat="45.72891" lon="3.09804">
        <ele>471.22937</ele>
      </trkpt>
      <trkpt lat="45.72854" lon="3.09828">
        <ele>474.012512</ele>
      </trkpt>
      <trkpt lat="45.72852" lon="3.0984">
        <ele>474.212494</ele>
      </trkpt>
      <trkpt lat="45.72791" lon="3.0986">
        <ele>481.38501</ele>
      </trkpt>
      <trkpt lat="45.72794" lon="3.09881">
        <ele>480.964996</ele>
      </trkpt>
      <trkpt lat="45.72765" lon="3.09899">
        <ele>484.894989</ele>
      </trkpt>
      <trkpt lat="45.72786" lon="3.09938">
        <ele>481.954987</ele>
      </trkpt>
      <trkpt lat="45.72794" lon="3.09971">
        <ele>481.053558</ele>
      </trkpt>
      <trkpt lat="45.728" lon="3.10023">
        <ele>480.918213</ele>
      </trkpt>
      <trkpt lat="45.72827" lon="3.10001">
        <ele>477.55249</ele>
      </trkpt>
      <trkpt lat="45.72855" lon="3.09991">
        <ele>474.350006</ele>
      </trkpt>
      <trkpt lat="45.72855" lon="3.09971">
        <ele>474.022491</ele>
      </trkpt>
      <trkpt lat="45.7288" lon="3.09948">
        <ele>471.640015</ele>
      </trkpt>
      <trkpt lat="45.72914" lon="3.09987">
        <ele>469.3125</ele>
      </trkpt>
      <trkpt lat="45.72929" lon="3.10004">
        <ele>468.617493</ele>
      </trkpt>
      <trkpt lat="45.72858" lon="3.10069">
        <ele>475.950012</ele>
      </trkpt>
      <trkpt lat="45.72841" lon="3.10081">
        <ele>477.757782</ele>
      </trkpt>
      <trkpt lat="45.72823" lon="3.10085">
        <ele>479.507172</ele>
      </trkpt>
      <trkpt lat="45.72747" lon="3.10079">
        <ele>487.321777</ele>
      </trkpt>
      <trkpt lat="45.7272" lon="3.10081">
        <ele>489.743988</ele>
      </trkpt>
      <trkpt lat="45.72732" lon="3.10202">
        <ele>492.002502</ele>
      </trkpt>
      <trkpt lat="45.72729" lon="3.10223">
        <ele>493.391754</ele>
      </trkpt>
      <trkpt lat="45.72713" lon="3.10251">
        <ele>497.074829</ele>
      </trkpt>
      <trkpt lat="45.72713" lon="3.10265">
        <ele>498.157013</ele>
      </trkpt>
      <trkpt lat="45.72764" lon="3.10369">
        <ele>499.983856</ele>
      </trkpt>
      <trkpt lat="45.7277" lon="3.10393">
        <ele>500.491364</ele>
      </trkpt>
      <trkpt lat="45.72771" lon="3.10415">
        <ele>501.871246</ele>
      </trkpt>
      <trkpt lat="45.72764" lon="3.10493">
        <ele>509.563049</ele>
      </trkpt>
      <trkpt lat="45.72764" lon="3.10515">
        <ele>512.05127</ele>
      </trkpt>
      <trkpt lat="45.72765" lon="3.10537">
        <ele>514.307495</ele>
      </trkpt>
      <trkpt lat="45.72764" lon="3.10572">
        <ele>518.38855</ele>
      </trkpt>
      <trkpt lat="45.72767" lon="3.10589">
        <ele>520.170288</ele>
      </trkpt>
      <trkpt lat="45.72778" lon="3.10626">
        <ele>523.886658</ele>
      </trkpt>
      <trkpt lat="45.72779" lon="3.10656">
        <ele>527.303162</ele>
      </trkpt>
      <trkpt lat="45.72783" lon="3.10686">
        <ele>530.935913</ele>
      </trkpt>
      <trkpt lat="45.72803" lon="3.10752">
        <ele>537.953308</ele>
      </trkpt>
      <trkpt lat="45.7282" lon="3.10794">
        <ele>541.519775</ele>
      </trkpt>
      <trkpt lat="45.72834" lon="3.10825">
        <ele>543.088196</ele>
      </trkpt>
      <trkpt lat="45.72838" lon="3.10841">
        <ele>544.466003</ele>
      </trkpt>
      <trkpt lat="45.72838" lon="3.10872">
        <ele>549.079468</ele>
      </trkpt>
      <trkpt lat="45.72844" lon="3.10891">
        <ele>549.840698</ele>
      </trkpt>
      <trkpt lat="45.72864" lon="3.10931">
        <ele>550.226013</ele>
      </trkpt>
      <trkpt lat="45.72871" lon="3.10955">
        <ele>551.890381</ele>
      </trkpt>
      <trkpt lat="45.72888" lon="3.10975">
        <ele>551.550781</ele>
      </trkpt>
      <trkpt lat="45.72899" lon="3.10986">
        <ele>551.587524</ele>
      </trkpt>
      <trkpt lat="45.72913" lon="3.11008">
        <ele>553.703552</ele>
      </trkpt>
      <trkpt lat="45.72914" lon="3.11018">
        <ele>555.091797</ele>
      </trkpt>
      <trkpt lat="45.72913" lon="3.11023">
        <ele>556.163086</ele>
      </trkpt>
      <trkpt lat="45.72899" lon="3.1104">
        <ele>560.677673</ele>
      </trkpt>
      <trkpt lat="45.72898" lon="3.11049">
        <ele>562.346375</ele>
      </trkpt>
      <trkpt lat="45.72905" lon="3.11067">
        <ele>564.14502</ele>
      </trkpt>
      <trkpt lat="45.72918" lon="3.11079">
        <ele>564.349976</ele>
      </trkpt>
      <trkpt lat="45.72922" lon="3.11094">
        <ele>566.044983</ele>
      </trkpt>
      <trkpt lat="45.72923" lon="3.11107">
        <ele>567.967468</ele>
      </trkpt>
      <trkpt lat="45.72905" lon="3.11124">
        <ele>572.723511</ele>
      </trkpt>
      <trkpt lat="45.72903" lon="3.11136">
        <ele>574.090027</ele>
      </trkpt>
      <trkpt lat="45.72906" lon="3.11189">
        <ele>578.278076</ele>
      </trkpt>
      <trkpt lat="45.72892" lon="3.11224">
        <ele>581.956848</ele>
      </trkpt>
      <trkpt lat="45.72875" lon="3.11232">
        <ele>585.508484</ele>
      </trkpt>
      <trkpt lat="45.72868" lon="3.11231">
        <ele>586.834167</ele>
      </trkpt>
      <trkpt lat="45.72842" lon="3.11245">
        <ele>592.468872</ele>
      </trkpt>
      <trkpt lat="45.72838" lon="3.11261">
        <ele>592.86499</ele>
      </trkpt>
      <trkpt lat="45.72823" lon="3.11267">
        <ele>595.599976</ele>
      </trkpt>
      <trkpt lat="45.72805" lon="3.11267">
        <ele>599.192505</ele>
      </trkpt>
      <trkpt lat="45.72797" lon="3.11258">
        <ele>601.137451</ele>
      </trkpt>
      <trkpt lat="45.72763" lon="3.11265">
        <ele>608.98761</ele>
      </trkpt>
      <trkpt lat="45.72713" lon="3.11263">
        <ele>622.901184</ele>
      </trkpt>
      <trkpt lat="45.72704" lon="3.1126">
        <ele>625.445679</ele>
      </trkpt>
      <trkpt lat="45.72681" lon="3.11283">
        <ele>630.253723</ele>
      </trkpt>
      <trkpt lat="45.72618" lon="3.11293">
        <ele>643.19751</ele>
      </trkpt>
      <trkpt lat="45.72596" lon="3.11278">
        <ele>646.251282</ele>
      </trkpt>
      <trkpt lat="45.72562" lon="3.11273">
        <ele>649.36969</ele>
      </trkpt>
      <trkpt lat="45.72544" lon="3.11263">
        <ele>651.135803</ele>
      </trkpt>
      <trkpt lat="45.72511" lon="3.11257">
        <ele>654.549194</ele>
      </trkpt>
      <trkpt lat="45.72504" lon="3.11251">
        <ele>655.583069</ele>
      </trkpt>
      <trkpt lat="45.72483" lon="3.11246">
        <ele>658.103882</ele>
      </trkpt>
      <trkpt lat="45.72457" lon="3.11246">
        <ele>662.190125</ele>
      </trkpt>
      <trkpt lat="45.72429" lon="3.11234">
        <ele>665.905396</ele>
      </trkpt>
      <trkpt lat="45.72401" lon="3.11219">
        <ele>668.722839</ele>
      </trkpt>
      <trkpt lat="45.72383" lon="3.11221">
        <ele>670.569336</ele>
      </trkpt>
      <trkpt lat="45.72354" lon="3.11209">
        <ele>674.427734</ele>
      </trkpt>
      <trkpt lat="45.7232" lon="3.11191">
        <ele>680.044312</ele>
      </trkpt>
      <trkpt lat="45.72284" lon="3.11166">
        <ele>686.273743</ele>
      </trkpt>
      <trkpt lat="45.72222" lon="3.11115">
        <ele>693.87561</ele>
      </trkpt>
      <trkpt lat="45.722" lon="3.11097">
        <ele>699.52356</ele>
      </trkpt>
      <trkpt lat="45.72178" lon="3.1107">
        <ele>704.549194</ele>
      </trkpt>
      <trkpt lat="45.72148" lon="3.11036">
        <ele>710.472046</ele>
      </trkpt>
      <trkpt lat="45.72158" lon="3.11077">
        <ele>710.168884</ele>
      </trkpt>
      <trkpt lat="45.72154" lon="3.11112">
        <ele>713.062012</ele>
      </trkpt>
      <trkpt lat="45.72151" lon="3.1115">
        <ele>715.395081</ele>
      </trkpt>
      <trkpt lat="45.72142" lon="3.11168">
        <ele>718.828003</ele>
      </trkpt>
      <trkpt lat="45.72164" lon="3.11254">
        <ele>714.213989</ele>
      </trkpt>
      <trkpt lat="45.72168" lon="3.11278">
        <ele>713.838562</ele>
      </trkpt>
      <trkpt lat="45.72181" lon="3.11315">
        <ele>710.83075</ele>
      </trkpt>
      <trkpt lat="45.72183" lon="3.11351">
        <ele>711.349915</ele>
      </trkpt>
      <trkpt lat="45.72189" lon="3.11402">
        <ele>708.339355</ele>
      </trkpt>
      <trkpt lat="45.72204" lon="3.1145">
        <ele>703.922119</ele>
      </trkpt>
      <trkpt lat="45.72207" lon="3.11471">
        <ele>703.596069</ele>
      </trkpt>
      <trkpt lat="45.72226" lon="3.11549">
        <ele>699.779541</ele>
      </trkpt>
      <trkpt lat="45.72225" lon="3.11564">
        <ele>700.138611</ele>
      </trkpt>
      <trkpt lat="45.72198" lon="3.11567">
        <ele>704.3703</ele>
      </trkpt>
      <trkpt lat="45.72172" lon="3.11573">
        <ele>706.846252</ele>
      </trkpt>
      <trkpt lat="45.72127" lon="3.1158">
        <ele>708.841675</ele>
      </trkpt>
      <trkpt lat="45.72056" lon="3.11589">
        <ele>710.438721</ele>
      </trkpt>
      <trkpt lat="45.71951" lon="3.116">
        <ele>711.618408</ele>
      </trkpt>
      <trkpt lat="45.71889" lon="3.11605">
        <ele>709.387512</ele>
      </trkpt>
      <trkpt lat="45.7186" lon="3.11614">
        <ele>709.092529</ele>
      </trkpt>
      <trkpt lat="45.71829" lon="3.11609">
        <ele>709.167786</ele>
      </trkpt>
      <trkpt lat="45.71791" lon="3.11613">
        <ele>708.309998</ele>
      </trkpt>
      <trkpt lat="45.71776" lon="3.11616">
        <ele>707.60498</ele>
      </trkpt>
      <trkpt lat="45.71777" lon="3.11595">
        <ele>707.942505</ele>
      </trkpt>
      <trkpt lat="45.71777" lon="3.11579">
        <ele>708.188721</ele>
      </trkpt>
      <trkpt lat="45.71774" lon="3.11557">
        <ele>708.423767</ele>
      </trkpt>
      <trkpt lat="45.71765" lon="3.11521">
        <ele>711.244629</ele>
      </trkpt>
      <trkpt lat="45.71758" lon="3.11501">
        <ele>713.029541</ele>
      </trkpt>
      <trkpt lat="45.71735" lon="3.11465">
        <ele>715.40094</ele>
      </trkpt>
      <trkpt lat="45.71724" lon="3.11441">
        <ele>717.756531</ele>
      </trkpt>
      <trkpt lat="45.71711" lon="3.11402">
        <ele>720.422729</ele>
      </trkpt>
      <trkpt lat="45.71699" lon="3.11381">
        <ele>720.661133</ele>
      </trkpt>
      <trkpt lat="45.71696" lon="3.11358">
        <ele>722.419922</ele>
      </trkpt>
      <trkpt lat="45.71683" lon="3.11329">
        <ele>723.262024</ele>
      </trkpt>
      <trkpt lat="45.71675" lon="3.11307">
        <ele>724.678528</ele>
      </trkpt>
      <trkpt lat="45.71673" lon="3.11292">
        <ele>725.717529</ele>
      </trkpt>
      <trkpt lat="45.71675" lon="3.11272">
        <ele>726.339478</ele>
      </trkpt>
      <trkpt lat="45.71676" lon="3.11254">
        <ele>726.626526</ele>
      </trkpt>
      <trkpt lat="45.71682" lon="3.11234">
        <ele>727.214233</ele>
      </trkpt>
      <trkpt lat="45.71685" lon="3.11223">
        <ele>727.440491</ele>
      </trkpt>
      <trkpt lat="45.71686" lon="3.11188">
        <ele>727.625244</ele>
      </trkpt>
      <trkpt lat="45.71687" lon="3.11153">
        <ele>727.658142</ele>
      </trkpt>
      <trkpt lat="45.71682" lon="3.11104">
        <ele>726.66156</ele>
      </trkpt>
      <trkpt lat="45.71687" lon="3.11091">
        <ele>727.211548</ele>
      </trkpt>
      <trkpt lat="45.717" lon="3.11077">
        <ele>728.865356</ele>
      </trkpt>
      <trkpt lat="45.71708" lon="3.1105">
        <ele>730.427063</ele>
      </trkpt>
      <trkpt lat="45.71706" lon="3.11025">
        <ele>730.266602</ele>
      </trkpt>
      <trkpt lat="45.71707" lon="3.11012">
        <ele>730.597961</ele>
      </trkpt>
      <trkpt lat="45.71716" lon="3.1099">
        <ele>733.165405</ele>
      </trkpt>
      <trkpt lat="45.71722" lon="3.10977">
        <ele>734.803894</ele>
      </trkpt>
      <trkpt lat="45.71719" lon="3.10952">
        <ele>734.869751</ele>
      </trkpt>
      <trkpt lat="45.71722" lon="3.10931">
        <ele>736.153992</ele>
      </trkpt>
      <trkpt lat="45.71726" lon="3.10916">
        <ele>737.07251</ele>
      </trkpt>
      <trkpt lat="45.71746" lon="3.10891">
        <ele>738.150757</ele>
      </trkpt>
      <trkpt lat="45.71752" lon="3.10861">
        <ele>737.572815</ele>
      </trkpt>
      <trkpt lat="45.71752" lon="3.10834">
        <ele>734.448669</ele>
      </trkpt>
      <trkpt lat="45.71761" lon="3.10809">
        <ele>730.069092</ele>
      </trkpt>
      <trkpt lat="45.71758" lon="3.10783">
        <ele>723.383789</ele>
      </trkpt>
      <trkpt lat="45.7175" lon="3.10768">
        <ele>718.956421</ele>
      </trkpt>
      <trkpt lat="45.71736" lon="3.10749">
        <ele>714.32782</ele>
      </trkpt>
      <trkpt lat="45.71727" lon="3.10723">
        <ele>709.940979</ele>
      </trkpt>
      <trkpt lat="45.71722" lon="3.10697">
        <ele>704.944397</ele>
      </trkpt>
      <trkpt lat="45.71706" lon="3.10628">
        <ele>692.990356</ele>
      </trkpt>
      <trkpt lat="45.71697" lon="3.1058">
        <ele>689.423645</ele>
      </trkpt>
      <trkpt lat="45.71688" lon="3.10555">
        <ele>691.19696</ele>
      </trkpt>
      <trkpt lat="45.71673" lon="3.10533">
        <ele>692.759521</ele>
      </trkpt>
      <trkpt lat="45.71656" lon="3.10513">
        <ele>693.986084</ele>
      </trkpt>
      <trkpt lat="45.71634" lon="3.10487">
        <ele>696.188049</ele>
      </trkpt>
      <trkpt lat="45.71621" lon="3.10463">
        <ele>697.564819</ele>
      </trkpt>
      <trkpt lat="45.71602" lon="3.10407">
        <ele>697.908997</ele>
      </trkpt>
      <trkpt lat="45.71591" lon="3.10402">
        <ele>697.716248</ele>
      </trkpt>
      <trkpt lat="45.71574" lon="3.10409">
        <ele>696.946045</ele>
      </trkpt>
      <trkpt lat="45.71524" lon="3.10435">
        <ele>694.17395</ele>
      </trkpt>
      <trkpt lat="45.71468" lon="3.10467">
        <ele>692.303406</ele>
      </trkpt>
      <trkpt lat="45.71462" lon="3.10464">
        <ele>692.55542</ele>
      </trkpt>
      <trkpt lat="45.71442" lon="3.10407">
        <ele>692.742493</ele>
      </trkpt>
      <trkpt lat="45.71416" lon="3.10344">
        <ele>691.940857</ele>
      </trkpt>
      <trkpt lat="45.71388" lon="3.1027">
        <ele>692.074524</ele>
      </trkpt>
      <trkpt lat="45.71361" lon="3.10186">
        <ele>692.807312</ele>
      </trkpt>
      <trkpt lat="45.71339" lon="3.10097">
        <ele>696.937683</ele>
      </trkpt>
      <trkpt lat="45.71321" lon="3.10092">
        <ele>697.174377</ele>
      </trkpt>
      <trkpt lat="45.71291" lon="3.10095">
        <ele>698.060181</ele>
      </trkpt>
      <trkpt lat="45.71271" lon="3.10101">
        <ele>698.090027</ele>
      </trkpt>
      <trkpt lat="45.71257" lon="3.10114">
        <ele>697.044983</ele>
      </trkpt>
      <trkpt lat="45.71228" lon="3.10147">
        <ele>694.642517</ele>
      </trkpt>
      <trkpt lat="45.71197" lon="3.10201">
        <ele>691.508179</ele>
      </trkpt>
      <trkpt lat="45.71177" lon="3.10251">
        <ele>689.094055</ele>
      </trkpt>
      <trkpt lat="45.71165" lon="3.10266">
        <ele>689.122498</ele>
      </trkpt>
      <trkpt lat="45.71146" lon="3.10282">
        <ele>689.820007</ele>
      </trkpt>
      <trkpt lat="45.7111" lon="3.10313">
        <ele>689.891663</ele>
      </trkpt>
      <trkpt lat="45.71067" lon="3.10349">
        <ele>689.233215</ele>
      </trkpt>
      <trkpt lat="45.71045" lon="3.10374">
        <ele>688.43634</ele>
      </trkpt>
      <trkpt lat="45.71028" lon="3.10401">
        <ele>687.529358</ele>
      </trkpt>
      <trkpt lat="45.71001" lon="3.10427">
        <ele>689.077942</ele>
      </trkpt>
      <trkpt lat="45.70952" lon="3.10479">
        <ele>692.057007</ele>
      </trkpt>
      <trkpt lat="45.70892" lon="3.1054">
        <ele>684.660522</ele>
      </trkpt>
      <trkpt lat="45.70864" lon="3.10566">
        <ele>678.249939</ele>
      </trkpt>
      <trkpt lat="45.70842" lon="3.10596">
        <ele>671.971985</ele>
      </trkpt>
      <trkpt lat="45.70823" lon="3.10613">
        <ele>667.892029</ele>
      </trkpt>
      <trkpt lat="45.70804" lon="3.10621">
        <ele>664.527466</ele>
      </trkpt>
      <trkpt lat="45.70797" lon="3.1063">
        <ele>663.754761</ele>
      </trkpt>
      <trkpt lat="45.70789" lon="3.10648">
        <ele>662.607239</ele>
      </trkpt>
      <trkpt lat="45.70777" lon="3.10663">
        <ele>661.062073</ele>
      </trkpt>
      <trkpt lat="45.70738" lon="3.10691">
        <ele>656.647034</ele>
      </trkpt>
      <trkpt lat="45.70725" lon="3.10692">
        <ele>654.163391</ele>
      </trkpt>
      <trkpt lat="45.70712" lon="3.10688">
        <ele>650.792114</ele>
      </trkpt>
      <trkpt lat="45.70699" lon="3.1069">
        <ele>647.993347</ele>
      </trkpt>
      <trkpt lat="45.70687" lon="3.10699">
        <ele>645.666016</ele>
      </trkpt>
      <trkpt lat="45.70675" lon="3.10718">
        <ele>642.005371</ele>
      </trkpt>
      <trkpt lat="45.70661" lon="3.10751">
        <ele>639.712769</ele>
      </trkpt>
      <trkpt lat="45.70662" lon="3.1076">
        <ele>640.635071</ele>
      </trkpt>
      <trkpt lat="45.70653" lon="3.10762">
        <ele>638.815613</ele>
      </trkpt>
      <trkpt lat="45.70649" lon="3.1077">
        <ele>638.578186</ele>
      </trkpt>
      <trkpt lat="45.70643" lon="3.10784">
        <ele>638.888123</ele>
      </trkpt>
      <trkpt lat="45.70633" lon="3.10796">
        <ele>637.050903</ele>
      </trkpt>
      <trkpt lat="45.70627" lon="3.10794">
        <ele>634.73938</ele>
      </trkpt>
      <trkpt lat="45.70626" lon="3.10788">
        <ele>633.59436</ele>
      </trkpt>
      <trkpt lat="45.70627" lon="3.10755">
        <ele>628.84375</ele>
      </trkpt>
      <trkpt lat="45.70636" lon="3.10719">
        <ele>627.30249</ele>
      </trkpt>
      <trkpt lat="45.70643" lon="3.10697">
        <ele>627.111572</ele>
      </trkpt>
      <trkpt lat="45.70646" lon="3.10677">
        <ele>624.674683</ele>
      </trkpt>
      <trkpt lat="45.70644" lon="3.10669">
        <ele>622.289978</ele>
      </trkpt>
      <trkpt lat="45.70636" lon="3.10662">
        <ele>618.90387</ele>
      </trkpt>
      <trkpt lat="45.706" lon="3.10678">
        <ele>609.257935</ele>
      </trkpt>
      <trkpt lat="45.70581" lon="3.10684">
        <ele>605.89093</ele>
      </trkpt>
      <trkpt lat="45.70564" lon="3.10712">
        <ele>603.009094</ele>
      </trkpt>
      <trkpt lat="45.7055" lon="3.10726">
        <ele>600.712219</ele>
      </trkpt>
      <trkpt lat="45.70528" lon="3.10739">
        <ele>597.546326</ele>
      </trkpt>
      <trkpt lat="45.70497" lon="3.10768">
        <ele>591.630859</ele>
      </trkpt>
      <trkpt lat="45.7048" lon="3.1078">
        <ele>587.940247</ele>
      </trkpt>
      <trkpt lat="45.70458" lon="3.10789">
        <ele>583.149475</ele>
      </trkpt>
      <trkpt lat="45.70448" lon="3.10796">
        <ele>581.051453</ele>
      </trkpt>
      <trkpt lat="45.70435" lon="3.1081">
        <ele>578.372986</ele>
      </trkpt>
      <trkpt lat="45.70356" lon="3.10835">
        <ele>567.048279</ele>
      </trkpt>
      <trkpt lat="45.70358" lon="3.10869">
        <ele>566.339294</ele>
      </trkpt>
      <trkpt lat="45.70354" lon="3.1089">
        <ele>564.781982</ele>
      </trkpt>
      <trkpt lat="45.70349" lon="3.10901">
        <ele>564.427551</ele>
      </trkpt>
      <trkpt lat="45.70339" lon="3.10916">
        <ele>562.884338</ele>
      </trkpt>
      <trkpt lat="45.70306" lon="3.10939">
        <ele>558.836182</ele>
      </trkpt>
      <trkpt lat="45.70302" lon="3.10939">
        <ele>558.275879</ele>
      </trkpt>
      <trkpt lat="45.70294" lon="3.10938">
        <ele>557.315125</ele>
      </trkpt>
      <trkpt lat="45.70277" lon="3.10943">
        <ele>555.754883</ele>
      </trkpt>
      <trkpt lat="45.70257" lon="3.10951">
        <ele>554.891968</ele>
      </trkpt>
      <trkpt lat="45.70253" lon="3.10947">
        <ele>554.721558</ele>
      </trkpt>
      <trkpt lat="45.7025" lon="3.10912">
        <ele>554.988708</ele>
      </trkpt>
      <trkpt lat="45.70247" lon="3.10894">
        <ele>555.119751</ele>
      </trkpt>
      <trkpt lat="45.70246" lon="3.10862">
        <ele>556.062927</ele>
      </trkpt>
      <trkpt lat="45.70241" lon="3.10856">
        <ele>556.055664</ele>
      </trkpt>
      <trkpt lat="45.70221" lon="3.10856">
        <ele>555.035828</ele>
      </trkpt>
      <trkpt lat="45.70214" lon="3.10852">
        <ele>554.727539</ele>
      </trkpt>
      <trkpt lat="45.70208" lon="3.10841">
        <ele>554.604187</ele>
      </trkpt>
      <trkpt lat="45.70187" lon="3.1079">
        <ele>552.958435</ele>
      </trkpt>
      <trkpt lat="45.70178" lon="3.10793">
        <ele>550.849182</ele>
      </trkpt>
      <trkpt lat="45.70169" lon="3.10821">
        <ele>547.462952</ele>
      </trkpt>
      <trkpt lat="45.70163" lon="3.10832">
        <ele>546.230042</ele>
      </trkpt>
      <trkpt lat="45.70153" lon="3.10839">
        <ele>543.972778</ele>
      </trkpt>
      <trkpt lat="45.70064" lon="3.10866">
        <ele>529.397522</ele>
      </trkpt>
      <trkpt lat="45.70037" lon="3.10869">
        <ele>524.249634</ele>
      </trkpt>
      <trkpt lat="45.7002" lon="3.10868">
        <ele>520.714111</ele>
      </trkpt>
      <trkpt lat="45.69994" lon="3.10865">
        <ele>515.969727</ele>
      </trkpt>
      <trkpt lat="45.69979" lon="3.10865">
        <ele>513.52063</ele>
      </trkpt>
      <trkpt lat="45.69958" lon="3.10875">
        <ele>509.829041</ele>
      </trkpt>
      <trkpt lat="45.69926" lon="3.10897">
        <ele>504.252808</ele>
      </trkpt>
      <trkpt lat="45.69894" lon="3.1092">
        <ele>499.537964</ele>
      </trkpt>
      <trkpt lat="45.69818" lon="3.10993">
        <ele>488.177795</ele>
      </trkpt>
      <trkpt lat="45.69812" lon="3.10991">
        <ele>487.636841</ele>
      </trkpt>
      <trkpt lat="45.69756" lon="3.10894">
        <ele>485.685699</ele>
      </trkpt>
      <trkpt lat="45.69724" lon="3.10839">
        <ele>484.820679</ele>
      </trkpt>
      <trkpt lat="45.69704" lon="3.10799">
        <ele>484.944763</ele>
      </trkpt>
      <trkpt lat="45.69678" lon="3.10731">
        <ele>484.714996</ele>
      </trkpt>
      <trkpt lat="45.69657" lon="3.10671">
        <ele>484.45462</ele>
      </trkpt>
      <trkpt lat="45.69641" lon="3.10636">
        <ele>484.100616</ele>
      </trkpt>
      <trkpt lat="45.69626" lon="3.10605">
        <ele>484.050415</ele>
      </trkpt>
      <trkpt lat="45.69611" lon="3.10581">
        <ele>483.717743</ele>
      </trkpt>
      <trkpt lat="45.69599" lon="3.10568">
        <ele>483.505768</ele>
      </trkpt>
      <trkpt lat="45.6961" lon="3.10491">
        <ele>486.047485</ele>
      </trkpt>
      <trkpt lat="45.69623" lon="3.10434">
        <ele>488.625</ele>
      </trkpt>
      <trkpt lat="45.69646" lon="3.10317">
        <ele>494.737762</ele>
      </trkpt>
      <trkpt lat="45.69663" lon="3.10236">
        <ele>499.554993</ele>
      </trkpt>
      <trkpt lat="45.69671" lon="3.10183">
        <ele>503.605011</ele>
      </trkpt>
      <trkpt lat="45.69677" lon="3.10168">
        <ele>504.940063</ele>
      </trkpt>
      <trkpt lat="45.69684" lon="3.10155">
        <ele>506.306366</ele>
      </trkpt>
      <trkpt lat="45.69724" lon="3.10118">
        <ele>512.444641</ele>
      </trkpt>
      <trkpt lat="45.69659" lon="3.1004">
        <ele>509.127502</ele>
      </trkpt>
      <trkpt lat="45.69579" lon="3.0995">
        <ele>507.338501</ele>
      </trkpt>
      <trkpt lat="45.69562" lon="3.09933">
        <ele>507.43103</ele>
      </trkpt>
      <trkpt lat="45.69549" lon="3.09923">
        <ele>507.428589</ele>
      </trkpt>
      <trkpt lat="45.6952" lon="3.09908">
        <ele>507.242737</ele>
      </trkpt>
      <trkpt lat="45.69455" lon="3.09886">
        <ele>504.877502</ele>
      </trkpt>
      <trkpt lat="45.69396" lon="3.09868">
        <ele>502.903687</ele>
      </trkpt>
      <trkpt lat="45.6938" lon="3.09863">
        <ele>502.096497</ele>
      </trkpt>
      <trkpt lat="45.69372" lon="3.09852">
        <ele>502.1315</ele>
      </trkpt>
      <trkpt lat="45.6936" lon="3.09826">
        <ele>503.569489</ele>
      </trkpt>
      <trkpt lat="45.69351" lon="3.09817">
        <ele>503.799805</ele>
      </trkpt>
      <trkpt lat="45.6934" lon="3.09809">
        <ele>503.793793</ele>
      </trkpt>
      <trkpt lat="45.69312" lon="3.09798">
        <ele>502.567078</ele>
      </trkpt>
      <trkpt lat="45.69287" lon="3.09799">
        <ele>500.327515</ele>
      </trkpt>
      <trkpt lat="45.69281" lon="3.09754">
        <ele>503.452515</ele>
      </trkpt>
      <trkpt lat="45.69273" lon="3.09728">
        <ele>504.726257</ele>
      </trkpt>
      <trkpt lat="45.69263" lon="3.09701">
        <ele>504.836243</ele>
      </trkpt>
      <trkpt lat="45.69253" lon="3.09674">
        <ele>504.301575</ele>
      </trkpt>
      <trkpt lat="45.69245" lon="3.09672">
        <ele>503.549652</ele>
      </trkpt>
      <trkpt lat="45.69216" lon="3.09683">
        <ele>500.127808</ele>
      </trkpt>
      <trkpt lat="45.69209" lon="3.09696">
        <ele>498.453369</ele>
      </trkpt>
      <trkpt lat="45.69198" lon="3.0971">
        <ele>495.506378</ele>
      </trkpt>
      <trkpt lat="45.69181" lon="3.09723">
        <ele>490.92807</ele>
      </trkpt>
      <trkpt lat="45.69175" lon="3.09721">
        <ele>489.720764</ele>
      </trkpt>
      <trkpt lat="45.69168" lon="3.09702">
        <ele>489.827057</ele>
      </trkpt>
      <trkpt lat="45.69161" lon="3.09673">
        <ele>492.025726</ele>
      </trkpt>
      <trkpt lat="45.69151" lon="3.0964">
        <ele>493.473358</ele>
      </trkpt>
      <trkpt lat="45.69146" lon="3.09617">
        <ele>494.239075</ele>
      </trkpt>
      <trkpt lat="45.69142" lon="3.0961">
        <ele>494.418457</ele>
      </trkpt>
      <trkpt lat="45.69143" lon="3.09603">
        <ele>494.789368</ele>
      </trkpt>
      <trkpt lat="45.69151" lon="3.09594">
        <ele>495.396606</ele>
      </trkpt>
      <trkpt lat="45.69163" lon="3.09565">
        <ele>496.884552</ele>
      </trkpt>
      <trkpt lat="45.69173" lon="3.09543">
        <ele>497.909851</ele>
      </trkpt>
      <trkpt lat="45.692" lon="3.09515">
        <ele>500.345123</ele>
      </trkpt>
      <trkpt lat="45.69208" lon="3.09514">
        <ele>500.883911</ele>
      </trkpt>
      <trkpt lat="45.69219" lon="3.09516">
        <ele>501.895325</ele>
      </trkpt>
      <trkpt lat="45.69224" lon="3.09511">
        <ele>502.506683</ele>
      </trkpt>
      <trkpt lat="45.69226" lon="3.09503">
        <ele>502.956635</ele>
      </trkpt>
      <trkpt lat="45.69191" lon="3.09477">
        <ele>500.664307</ele>
      </trkpt>
      <trkpt lat="45.69186" lon="3.0947">
        <ele>500.556641</ele>
      </trkpt>
      <trkpt lat="45.69157" lon="3.0948">
        <ele>500.813904</ele>
      </trkpt>
      <trkpt lat="45.69146" lon="3.09496">
        <ele>501.551819</ele>
      </trkpt>
      <trkpt lat="45.69108" lon="3.09534">
        <ele>504.738647</ele>
      </trkpt>
      <trkpt lat="45.69098" lon="3.09553">
        <ele>505.16629</ele>
      </trkpt>
      <trkpt lat="45.69083" lon="3.09589">
        <ele>506.309998</ele>
      </trkpt>
      <trkpt lat="45.69069" lon="3.09632">
        <ele>508.243073</ele>
      </trkpt>
      <trkpt lat="45.69058" lon="3.0967">
        <ele>510.935333</ele>
      </trkpt>
      <trkpt lat="45.69044" lon="3.09699">
        <ele>515.126648</ele>
      </trkpt>
      <trkpt lat="45.69019" lon="3.09729">
        <ele>522.19281</ele>
      </trkpt>
      <trkpt lat="45.68991" lon="3.09791">
        <ele>527.500549</ele>
      </trkpt>
      <trkpt lat="45.68981" lon="3.09802">
        <ele>529.364868</ele>
      </trkpt>
      <trkpt lat="45.68942" lon="3.09776">
        <ele>535.874146</ele>
      </trkpt>
      <trkpt lat="45.6892" lon="3.0975">
        <ele>539.63501</ele>
      </trkpt>
      <trkpt lat="45.68911" lon="3.09743">
        <ele>541.030029</ele>
      </trkpt>
      <trkpt lat="45.68896" lon="3.09739">
        <ele>542.822754</ele>
      </trkpt>
      <trkpt lat="45.68838" lon="3.09732">
        <ele>549.224976</ele>
      </trkpt>
      <trkpt lat="45.68829" lon="3.09729">
        <ele>550.380005</ele>
      </trkpt>
      <trkpt lat="45.68822" lon="3.09719">
        <ele>551.897522</ele>
      </trkpt>
      <trkpt lat="45.68784" lon="3.09668">
        <ele>559.419067</ele>
      </trkpt>
      <trkpt lat="45.68774" lon="3.09654">
        <ele>561.050781</ele>
      </trkpt>
      <trkpt lat="45.68777" lon="3.09641">
        <ele>561.882507</ele>
      </trkpt>
      <trkpt lat="45.68772" lon="3.09598">
        <ele>565.450012</ele>
      </trkpt>
      <trkpt lat="45.68769" lon="3.09569">
        <ele>567.307495</ele>
      </trkpt>
      <trkpt lat="45.6876" lon="3.09529">
        <ele>569.800232</ele>
      </trkpt>
      <trkpt lat="45.68738" lon="3.09478">
        <ele>572.616638</ele>
      </trkpt>
      <trkpt lat="45.68732" lon="3.09459">
        <ele>573.414001</ele>
      </trkpt>
      <trkpt lat="45.68722" lon="3.09417">
        <ele>575.15625</ele>
      </trkpt>
      <trkpt lat="45.68716" lon="3.09394">
        <ele>576.262756</ele>
      </trkpt>
      <trkpt lat="45.68706" lon="3.09371">
        <ele>578.338928</ele>
      </trkpt>
      <trkpt lat="45.68697" lon="3.09359">
        <ele>580.147034</ele>
      </trkpt>
      <trkpt lat="45.68684" lon="3.09347">
        <ele>582.446777</ele>
      </trkpt>
      <trkpt lat="45.68675" lon="3.09331">
        <ele>584.556152</ele>
      </trkpt>
      <trkpt lat="45.6867" lon="3.0931">
        <ele>586.238403</ele>
      </trkpt>
      <trkpt lat="45.68667" lon="3.09289">
        <ele>587.570496</ele>
      </trkpt>
      <trkpt lat="45.68655" lon="3.0927">
        <ele>589.780579</ele>
      </trkpt>
      <trkpt lat="45.6861" lon="3.09214">
        <ele>597.008972</ele>
      </trkpt>
      <trkpt lat="45.68582" lon="3.09186">
        <ele>600.893677</ele>
      </trkpt>
      <trkpt lat="45.68553" lon="3.09153">
        <ele>605.781189</ele>
      </trkpt>
      <trkpt lat="45.68539" lon="3.09144">
        <ele>607.5802</ele>
      </trkpt>
      <trkpt lat="45.68485" lon="3.09142">
        <ele>613.782471</ele>
      </trkpt>
      <trkpt lat="45.68472" lon="3.09134">
        <ele>615.442505</ele>
      </trkpt>
      <trkpt lat="45.68461" lon="3.0912">
        <ele>617.147522</ele>
      </trkpt>
      <trkpt lat="45.68446" lon="3.09102">
        <ele>619.38501</ele>
      </trkpt>
      <trkpt lat="45.68433" lon="3.09087">
        <ele>621.359985</ele>
      </trkpt>
      <trkpt lat="45.6842" lon="3.09082">
        <ele>622.914978</ele>
      </trkpt>
      <trkpt lat="45.68391" lon="3.09081">
        <ele>625.584412</ele>
      </trkpt>
      <trkpt lat="45.68382" lon="3.09077">
        <ele>626.318176</ele>
      </trkpt>
      <trkpt lat="45.68373" lon="3.09066">
        <ele>627.185364</ele>
      </trkpt>
      <trkpt lat="45.68364" lon="3.09062">
        <ele>627.967773</ele>
      </trkpt>
      <trkpt lat="45.68349" lon="3.09061">
        <ele>629.26001</ele>
      </trkpt>
      <trkpt lat="45.68328" lon="3.09041">
        <ele>632.359985</ele>
      </trkpt>
      <trkpt lat="45.68307" lon="3.09028">
        <ele>635.110596</ele>
      </trkpt>
      <trkpt lat="45.68261" lon="3.08999">
        <ele>642.435974</ele>
      </trkpt>
      <trkpt lat="45.68229" lon="3.08989">
        <ele>650.596802</ele>
      </trkpt>
      <trkpt lat="45.68204" lon="3.0898">
        <ele>659.791565</ele>
      </trkpt>
      <trkpt lat="45.68184" lon="3.08972">
        <ele>666.786926</ele>
      </trkpt>
      <trkpt lat="45.6817" lon="3.08954">
        <ele>672.198242</ele>
      </trkpt>
      <trkpt lat="45.68162" lon="3.08931">
        <ele>675.467712</ele>
      </trkpt>
      <trkpt lat="45.68152" lon="3.08919">
        <ele>678.987976</ele>
      </trkpt>
      <trkpt lat="45.68141" lon="3.08914">
        <ele>681.864197</ele>
      </trkpt>
      <trkpt lat="45.68135" lon="3.08918">
        <ele>682.910767</ele>
      </trkpt>
      <trkpt lat="45.68131" lon="3.08927">
        <ele>683.099365</ele>
      </trkpt>
      <trkpt lat="45.6812" lon="3.08928">
        <ele>684.374207</ele>
      </trkpt>
      <trkpt lat="45.68084" lon="3.08904">
        <ele>688.169983</ele>
      </trkpt>
      <trkpt lat="45.68025" lon="3.0887">
        <ele>689.984985</ele>
      </trkpt>
      <trkpt lat="45.67961" lon="3.08837">
        <ele>692.844971</ele>
      </trkpt>
      <trkpt lat="45.67943" lon="3.0883">
        <ele>693.664978</ele>
      </trkpt>
      <trkpt lat="45.67903" lon="3.08824">
        <ele>694.922852</ele>
      </trkpt>
      <trkpt lat="45.67869" lon="3.08817">
        <ele>694.757446</ele>
      </trkpt>
      <trkpt lat="45.67856" lon="3.08822">
        <ele>692.811279</ele>
      </trkpt>
      <trkpt lat="45.67838" lon="3.08831">
        <ele>689.91626</ele>
      </trkpt>
      <trkpt lat="45.67827" lon="3.08831">
        <ele>688.243774</ele>
      </trkpt>
      <trkpt lat="45.67816" lon="3.08823">
        <ele>685.806702</ele>
      </trkpt>
      <trkpt lat="45.67804" lon="3.08796">
        <ele>682.869446</ele>
      </trkpt>
      <trkpt lat="45.678" lon="3.08759">
        <ele>680.958374</ele>
      </trkpt>
      <trkpt lat="45.67794" lon="3.08741">
        <ele>678.787109</ele>
      </trkpt>
      <trkpt lat="45.67788" lon="3.08729">
        <ele>676.317505</ele>
      </trkpt>
      <trkpt lat="45.67773" lon="3.08719">
        <ele>672.029785</ele>
      </trkpt>
      <trkpt lat="45.67765" lon="3.08707">
        <ele>669.422729</ele>
      </trkpt>
      <trkpt lat="45.67747" lon="3.0865">
        <ele>663.201233</ele>
      </trkpt>
      <trkpt lat="45.67738" lon="3.08636">
        <ele>660.855469</ele>
      </trkpt>
      <trkpt lat="45.67721" lon="3.08627">
        <ele>657.190125</ele>
      </trkpt>
      <trkpt lat="45.67694" lon="3.08607">
        <ele>651.903687</ele>
      </trkpt>
      <trkpt lat="45.67673" lon="3.08597">
        <ele>647.326233</ele>
      </trkpt>
      <trkpt lat="45.67666" lon="3.0859">
        <ele>645.97168</ele>
      </trkpt>
      <trkpt lat="45.67638" lon="3.08535">
        <ele>640.367493</ele>
      </trkpt>
      <trkpt lat="45.67618" lon="3.08506">
        <ele>635.882507</ele>
      </trkpt>
      <trkpt lat="45.67602" lon="3.08481">
        <ele>632.304993</ele>
      </trkpt>
      <trkpt lat="45.67593" lon="3.08462">
        <ele>630.127502</ele>
      </trkpt>
      <trkpt lat="45.67592" lon="3.08439">
        <ele>629.813721</ele>
      </trkpt>
      <trkpt lat="45.67588" lon="3.08426">
        <ele>628.936279</ele>
      </trkpt>
      <trkpt lat="45.67574" lon="3.08412">
        <ele>624.837524</ele>
      </trkpt>
      <trkpt lat="45.6756" lon="3.08355">
        <ele>621.762939</ele>
      </trkpt>
      <trkpt lat="45.67552" lon="3.0831">
        <ele>621.114075</ele>
      </trkpt>
      <trkpt lat="45.67543" lon="3.08297">
        <ele>619.434509</ele>
      </trkpt>
      <trkpt lat="45.6753" lon="3.08277">
        <ele>617.41748</ele>
      </trkpt>
      <trkpt lat="45.67521" lon="3.08241">
        <ele>617.017517</ele>
      </trkpt>
      <trkpt lat="45.67513" lon="3.0823">
        <ele>615.66626</ele>
      </trkpt>
      <trkpt lat="45.67505" lon="3.08203">
        <ele>615.970093</ele>
      </trkpt>
      <trkpt lat="45.67493" lon="3.08169">
        <ele>616.52356</ele>
      </trkpt>
      <trkpt lat="45.67485" lon="3.08168">
        <ele>614.774048</ele>
      </trkpt>
      <trkpt lat="45.67475" lon="3.0818">
        <ele>611.610718</ele>
      </trkpt>
      <trkpt lat="45.67453" lon="3.08198">
        <ele>605.819275</ele>
      </trkpt>
      <trkpt lat="45.67443" lon="3.08165">
        <ele>606.634949</ele>
      </trkpt>
      <trkpt lat="45.67427" lon="3.08139">
        <ele>606.929749</ele>
      </trkpt>
      <trkpt lat="45.67421" lon="3.08124">
        <ele>608.19574</ele>
      </trkpt>
      <trkpt lat="45.67411" lon="3.08106">
        <ele>611.529541</ele>
      </trkpt>
      <trkpt lat="45.67393" lon="3.08075">
        <ele>615.215942</ele>
      </trkpt>
      <trkpt lat="45.67384" lon="3.08057">
        <ele>615.885864</ele>
      </trkpt>
      <trkpt lat="45.67378" lon="3.08053">
        <ele>615.560913</ele>
      </trkpt>
      <trkpt lat="45.67376" lon="3.08063">
        <ele>615.91748</ele>
      </trkpt>
      <trkpt lat="45.67382" lon="3.08094">
        <ele>614.53418</ele>
      </trkpt>
      <trkpt lat="45.67382" lon="3.08119">
        <ele>613.058533</ele>
      </trkpt>
      <trkpt lat="45.67377" lon="3.08143">
        <ele>612.630859</ele>
      </trkpt>
      <trkpt lat="45.67364" lon="3.08171">
        <ele>615.294495</ele>
      </trkpt>
      <trkpt lat="45.67346" lon="3.08201">
        <ele>619.959656</ele>
      </trkpt>
      <trkpt lat="45.67339" lon="3.08219">
        <ele>621.86322</ele>
      </trkpt>
      <trkpt lat="45.67322" lon="3.08307">
        <ele>623.522949</ele>
      </trkpt>
      <trkpt lat="45.67311" lon="3.08353">
        <ele>624.964722</ele>
      </trkpt>
      <trkpt lat="45.67301" lon="3.08377">
        <ele>626.856812</ele>
      </trkpt>
      <trkpt lat="45.67286" lon="3.08396">
        <ele>630.172729</ele>
      </trkpt>
      <trkpt lat="45.67264" lon="3.08419">
        <ele>631.487244</ele>
      </trkpt>
      <trkpt lat="45.67249" lon="3.08427">
        <ele>632.962402</ele>
      </trkpt>
      <trkpt lat="45.67218" lon="3.08424">
        <ele>635.34259</ele>
      </trkpt>
      <trkpt lat="45.67197" lon="3.08425">
        <ele>636.359558</ele>
      </trkpt>
      <trkpt lat="45.67186" lon="3.08431">
        <ele>636.108398</ele>
      </trkpt>
      <trkpt lat="45.67171" lon="3.08442">
        <ele>635.643494</ele>
      </trkpt>
      <trkpt lat="45.6716" lon="3.08443">
        <ele>635.506104</ele>
      </trkpt>
      <trkpt lat="45.67138" lon="3.08436">
        <ele>635.247498</ele>
      </trkpt>
      <trkpt lat="45.67078" lon="3.08424">
        <ele>634.711243</ele>
      </trkpt>
      <trkpt lat="45.67063" lon="3.08418">
        <ele>634.799988</ele>
      </trkpt>
      <trkpt lat="45.67048" lon="3.0841">
        <ele>634.914978</ele>
      </trkpt>
      <trkpt lat="45.67029" lon="3.08391">
        <ele>635.061646</ele>
      </trkpt>
      <trkpt lat="45.67015" lon="3.08377">
        <ele>635</ele>
      </trkpt>
      <trkpt lat="45.66999" lon="3.08366">
        <ele>635</ele>
      </trkpt>
      <trkpt lat="45.66973" lon="3.08353">
        <ele>635</ele>
      </trkpt>
      <trkpt lat="45.66956" lon="3.08347">
        <ele>635.247742</ele>
      </trkpt>
      <trkpt lat="45.66931" lon="3.08347">
        <ele>635.650452</ele>
      </trkpt>
      <trkpt lat="45.6685" lon="3.08355">
        <ele>630.13501</ele>
      </trkpt>
      <trkpt lat="45.66838" lon="3.08353">
        <ele>629.090942</ele>
      </trkpt>
      <trkpt lat="45.6683" lon="3.08346">
        <ele>628.881836</ele>
      </trkpt>
      <trkpt lat="45.66816" lon="3.08335">
        <ele>627.699158</ele>
      </trkpt>
      <trkpt lat="45.66804" lon="3.08318">
        <ele>626.626343</ele>
      </trkpt>
      <trkpt lat="45.66792" lon="3.08307">
        <ele>625.838013</ele>
      </trkpt>
      <trkpt lat="45.66778" lon="3.08299">
        <ele>623.813416</ele>
      </trkpt>
      <trkpt lat="45.6675" lon="3.08295">
        <ele>618.490356</ele>
      </trkpt>
      <trkpt lat="45.66735" lon="3.08289">
        <ele>615.430298</ele>
      </trkpt>
      <trkpt lat="45.66722" lon="3.08275">
        <ele>613.516479</ele>
      </trkpt>
      <trkpt lat="45.66704" lon="3.08253">
        <ele>611.416443</ele>
      </trkpt>
      <trkpt lat="45.66689" lon="3.08233">
        <ele>609.895752</ele>
      </trkpt>
      <trkpt lat="45.66678" lon="3.08223">
        <ele>608.19104</ele>
      </trkpt>
      <trkpt lat="45.66654" lon="3.08214">
        <ele>602.25885</ele>
      </trkpt>
      <trkpt lat="45.66637" lon="3.082">
        <ele>600.103271</ele>
      </trkpt>
      <trkpt lat="45.66615" lon="3.08175">
        <ele>597.956604</ele>
      </trkpt>
      <trkpt lat="45.66596" lon="3.08159">
        <ele>596.081299</ele>
      </trkpt>
      <trkpt lat="45.66558" lon="3.08111">
        <ele>593.028992</ele>
      </trkpt>
      <trkpt lat="45.66517" lon="3.08062">
        <ele>587.575684</ele>
      </trkpt>
      <trkpt lat="45.665" lon="3.08043">
        <ele>584.082764</ele>
      </trkpt>
      <trkpt lat="45.66489" lon="3.08028">
        <ele>582.123657</ele>
      </trkpt>
      <trkpt lat="45.66486" lon="3.08007">
        <ele>582.319885</ele>
      </trkpt>
      <trkpt lat="45.6648" lon="3.07976">
        <ele>580.257629</ele>
      </trkpt>
      <trkpt lat="45.66478" lon="3.07953">
        <ele>579.702515</ele>
      </trkpt>
      <trkpt lat="45.66481" lon="3.07934">
        <ele>578.467529</ele>
      </trkpt>
      <trkpt lat="45.66495" lon="3.07893">
        <ele>575.913025</ele>
      </trkpt>
      <trkpt lat="45.66504" lon="3.07874">
        <ele>575.311279</ele>
      </trkpt>
      <trkpt lat="45.66504" lon="3.07865">
        <ele>573.840027</ele>
      </trkpt>
      <trkpt lat="45.66501" lon="3.0786">
        <ele>572.053772</ele>
      </trkpt>
      <trkpt lat="45.66491" lon="3.07865">
        <ele>570.112488</ele>
      </trkpt>
      <trkpt lat="45.6647" lon="3.07888">
        <ele>567.845947</ele>
      </trkpt>
      <trkpt lat="45.66433" lon="3.0793">
        <ele>560.860229</ele>
      </trkpt>
      <trkpt lat="45.66427" lon="3.07941">
        <ele>560.131958</ele>
      </trkpt>
      <trkpt lat="45.66421" lon="3.07976">
        <ele>559.080017</ele>
      </trkpt>
      <trkpt lat="45.66418" lon="3.07983">
        <ele>558.030029</ele>
      </trkpt>
      <trkpt lat="45.66401" lon="3.07999">
        <ele>552.849976</ele>
      </trkpt>
      <trkpt lat="45.66391" lon="3.08">
        <ele>549.559998</ele>
      </trkpt>
      <trkpt lat="45.66341" lon="3.07994">
        <ele>539.942871</ele>
      </trkpt>
      <trkpt lat="45.66339" lon="3.07972">
        <ele>539.97345</ele>
      </trkpt>
      <trkpt lat="45.6634" lon="3.07935">
        <ele>540.356323</ele>
      </trkpt>
      <trkpt lat="45.66352" lon="3.07841">
        <ele>539.727478</ele>
      </trkpt>
      <trkpt lat="45.66334" lon="3.07833">
        <ele>538.309204</ele>
      </trkpt>
      <trkpt lat="45.66287" lon="3.07817">
        <ele>539.760315</ele>
      </trkpt>
      <trkpt lat="45.66276" lon="3.07819">
        <ele>541.128357</ele>
      </trkpt>
      <trkpt lat="45.66271" lon="3.07829">
        <ele>541.592773</ele>
      </trkpt>
      <trkpt lat="45.66269" lon="3.07843">
        <ele>541.373718</ele>
      </trkpt>
      <trkpt lat="45.66274" lon="3.07875">
        <ele>539.999146</ele>
      </trkpt>
      <trkpt lat="45.66272" lon="3.07885">
        <ele>540.075745</ele>
      </trkpt>
      <trkpt lat="45.66262" lon="3.07887">
        <ele>541.19696</ele>
      </trkpt>
      <trkpt lat="45.66255" lon="3.07878">
        <ele>542.01947</ele>
      </trkpt>
      <trkpt lat="45.6625" lon="3.07853">
        <ele>542.74939</ele>
      </trkpt>
      <trkpt lat="45.66244" lon="3.07839">
        <ele>543.360596</ele>
      </trkpt>
      <trkpt lat="45.66232" lon="3.07828">
        <ele>544.189026</ele>
      </trkpt>
      <trkpt lat="45.66202" lon="3.07818">
        <ele>545.670593</ele>
      </trkpt>
      <trkpt lat="45.66161" lon="3.07807">
        <ele>547.283752</ele>
      </trkpt>
      <trkpt lat="45.66113" lon="3.07807">
        <ele>548.327026</ele>
      </trkpt>
      <trkpt lat="45.66108" lon="3.07839">
        <ele>544.926147</ele>
      </trkpt>
      <trkpt lat="45.66109" lon="3.07872">
        <ele>541.40564</ele>
      </trkpt>
      <trkpt lat="45.66116" lon="3.07928">
        <ele>540.091858</ele>
      </trkpt>
      <trkpt lat="45.66131" lon="3.08014">
        <ele>537.20752</ele>
      </trkpt>
      <trkpt lat="45.66137" lon="3.08054">
        <ele>534.192505</ele>
      </trkpt>
      <trkpt lat="45.66153" lon="3.08096">
        <ele>532.159973</ele>
      </trkpt>
      <trkpt lat="45.66169" lon="3.08123">
        <ele>531.821533</ele>
      </trkpt>
      <trkpt lat="45.66179" lon="3.0816">
        <ele>532.046875</ele>
      </trkpt>
      <trkpt lat="45.66185" lon="3.08192">
        <ele>532.617981</ele>
      </trkpt>
      <trkpt lat="45.66184" lon="3.08237">
        <ele>533.877014</ele>
      </trkpt>
      <trkpt lat="45.66187" lon="3.08259">
        <ele>534.225952</ele>
      </trkpt>
      <trkpt lat="45.66192" lon="3.08295">
        <ele>533.517944</ele>
      </trkpt>
      <trkpt lat="45.66193" lon="3.08309">
        <ele>533.296509</ele>
      </trkpt>
      <trkpt lat="45.66191" lon="3.08322">
        <ele>533.118591</ele>
      </trkpt>
      <trkpt lat="45.6618" lon="3.08351">
        <ele>531.976257</ele>
      </trkpt>
      <trkpt lat="45.66177" lon="3.08371">
        <ele>530.997498</ele>
      </trkpt>
      <trkpt lat="45.66177" lon="3.08392">
        <ele>530.022522</ele>
      </trkpt>
      <trkpt lat="45.66182" lon="3.08411">
        <ele>529.275391</ele>
      </trkpt>
      <trkpt lat="45.66208" lon="3.0849">
        <ele>526.900452</ele>
      </trkpt>
      <trkpt lat="45.66212" lon="3.08515">
        <ele>526.024475</ele>
      </trkpt>
      <trkpt lat="45.66216" lon="3.08552">
        <ele>524.817505</ele>
      </trkpt>
      <trkpt lat="45.66213" lon="3.08574">
        <ele>524.192505</ele>
      </trkpt>
      <trkpt lat="45.662" lon="3.08614">
        <ele>523.455017</ele>
      </trkpt>
      <trkpt lat="45.66169" lon="3.08723">
        <ele>520.026062</ele>
      </trkpt>
      <trkpt lat="45.66147" lon="3.08793">
        <ele>518.3172</ele>
      </trkpt>
      <trkpt lat="45.66129" lon="3.0887">
        <ele>515.821899</ele>
      </trkpt>
      <trkpt lat="45.66125" lon="3.0893">
        <ele>513.484985</ele>
      </trkpt>
      <trkpt lat="45.6612" lon="3.08984">
        <ele>511.584808</ele>
      </trkpt>
      <trkpt lat="45.66113" lon="3.09003">
        <ele>510.473389</ele>
      </trkpt>
      <trkpt lat="45.66118" lon="3.09021">
        <ele>509.901276</ele>
      </trkpt>
      <trkpt lat="45.66119" lon="3.09045">
        <ele>508.962494</ele>
      </trkpt>
      <trkpt lat="45.66117" lon="3.09065">
        <ele>507.871246</ele>
      </trkpt>
      <trkpt lat="45.66109" lon="3.09091">
        <ele>506.227509</ele>
      </trkpt>
      <trkpt lat="45.66094" lon="3.09117">
        <ele>504.826752</ele>
      </trkpt>
      <trkpt lat="45.66074" lon="3.09146">
        <ele>503.516571</ele>
      </trkpt>
      <trkpt lat="45.6605" lon="3.09122">
        <ele>504.493988</ele>
      </trkpt>
      <trkpt lat="45.6604" lon="3.09117">
        <ele>504.729614</ele>
      </trkpt>
      <trkpt lat="45.66021" lon="3.09114">
        <ele>505.028503</ele>
      </trkpt>
      <trkpt lat="45.66008" lon="3.09118">
        <ele>505.691406</ele>
      </trkpt>
      <trkpt lat="45.65995" lon="3.09113">
        <ele>506.312256</ele>
      </trkpt>
      <trkpt lat="45.65981" lon="3.09102">
        <ele>506.874664</ele>
      </trkpt>
      <trkpt lat="45.65966" lon="3.091">
        <ele>507.750031</ele>
      </trkpt>
      <trkpt lat="45.65956" lon="3.09104">
        <ele>508.571075</ele>
      </trkpt>
      <trkpt lat="45.65951" lon="3.09117">
        <ele>509.176208</ele>
      </trkpt>
      <trkpt lat="45.65954" lon="3.09131">
        <ele>509.330109</ele>
      </trkpt>
      <trkpt lat="45.6595" lon="3.09153">
        <ele>510.157898</ele>
      </trkpt>
      <trkpt lat="45.65947" lon="3.09176">
        <ele>511.523132</ele>
      </trkpt>
      <trkpt lat="45.65949" lon="3.09194">
        <ele>512.291992</ele>
      </trkpt>
      <trkpt lat="45.65955" lon="3.09209">
        <ele>512.545349</ele>
      </trkpt>
      <trkpt lat="45.65963" lon="3.09234">
        <ele>513.400513</ele>
      </trkpt>
      <trkpt lat="45.65974" lon="3.09256">
        <ele>514.526917</ele>
      </trkpt>
      <trkpt lat="45.65991" lon="3.09276">
        <ele>515.276245</ele>
      </trkpt>
      <trkpt lat="45.65987" lon="3.09284">
        <ele>516.46875</ele>
      </trkpt>
      <trkpt lat="45.66009" lon="3.0931">
        <ele>516.829529</ele>
      </trkpt>
      <trkpt lat="45.66023" lon="3.09333">
        <ele>518.717163</ele>
      </trkpt>
      <trkpt lat="45.66028" lon="3.0935">
        <ele>520.510315</ele>
      </trkpt>
      <trkpt lat="45.66023" lon="3.09361">
        <ele>519.674316</ele>
      </trkpt>
      <trkpt lat="45.66014" lon="3.0937">
        <ele>517.520874</ele>
      </trkpt>
      <trkpt lat="45.65998" lon="3.09367">
        <ele>516.857666</ele>
      </trkpt>
      <trkpt lat="45.65979" lon="3.09366">
        <ele>515.838013</ele>
      </trkpt>
      <trkpt lat="45.65972" lon="3.09361">
        <ele>516.472595</ele>
      </trkpt>
      <trkpt lat="45.65967" lon="3.0935">
        <ele>518.121277</ele>
      </trkpt>
      <trkpt lat="45.65943" lon="3.09322">
        <ele>517.339233</ele>
      </trkpt>
      <trkpt lat="45.65931" lon="3.09324">
        <ele>516.685547</ele>
      </trkpt>
      <trkpt lat="45.65915" lon="3.09323">
        <ele>515.620972</ele>
      </trkpt>
      <trkpt lat="45.65901" lon="3.09317">
        <ele>515.359375</ele>
      </trkpt>
      <trkpt lat="45.65849" lon="3.09324">
        <ele>511.505768</ele>
      </trkpt>
      <trkpt lat="45.65811" lon="3.09327">
        <ele>507.86734</ele>
      </trkpt>
      <trkpt lat="45.65792" lon="3.09326">
        <ele>506.555237</ele>
      </trkpt>
      <trkpt lat="45.65773" lon="3.09323">
        <ele>504.482361</ele>
      </trkpt>
      <trkpt lat="45.65748" lon="3.09304">
        <ele>502.123993</ele>
      </trkpt>
      <trkpt lat="45.65732" lon="3.09296">
        <ele>502.226013</ele>
      </trkpt>
      <trkpt lat="45.65703" lon="3.09297">
        <ele>502.474365</ele>
      </trkpt>
      <trkpt lat="45.65665" lon="3.09266">
        <ele>508.353546</ele>
      </trkpt>
      <trkpt lat="45.65646" lon="3.09234">
        <ele>509.908997</ele>
      </trkpt>
      <trkpt lat="45.65632" lon="3.09222">
        <ele>511.756409</ele>
      </trkpt>
      <trkpt lat="45.65553" lon="3.09224">
        <ele>527.790894</ele>
      </trkpt>
      <trkpt lat="45.65512" lon="3.09229">
        <ele>533.190796</ele>
      </trkpt>
      <trkpt lat="45.65498" lon="3.09225">
        <ele>534.450256</ele>
      </trkpt>
      <trkpt lat="45.65487" lon="3.09212">
        <ele>534.608765</ele>
      </trkpt>
      <trkpt lat="45.65466" lon="3.09182">
        <ele>534.660645</ele>
      </trkpt>
      <trkpt lat="45.65454" lon="3.09176">
        <ele>535.841003</ele>
      </trkpt>
      <trkpt lat="45.65341" lon="3.09127">
        <ele>548.205017</ele>
      </trkpt>
      <trkpt lat="45.65326" lon="3.09126">
        <ele>549.960022</ele>
      </trkpt>
      <trkpt lat="45.65292" lon="3.09129">
        <ele>555.012634</ele>
      </trkpt>
      <trkpt lat="45.65156" lon="3.09094">
        <ele>565.512085</ele>
      </trkpt>
      <trkpt lat="45.65138" lon="3.09088">
        <ele>567.577271</ele>
      </trkpt>
      <trkpt lat="45.65113" lon="3.09063">
        <ele>568.474426</ele>
      </trkpt>
      <trkpt lat="45.65103" lon="3.09016">
        <ele>563.862976</ele>
      </trkpt>
      <trkpt lat="45.65102" lon="3.09">
        <ele>563.467957</ele>
      </trkpt>
      <trkpt lat="45.65104" lon="3.08952">
        <ele>560.528992</ele>
      </trkpt>
      <trkpt lat="45.65109" lon="3.08914">
        <ele>559.244202</ele>
      </trkpt>
      <trkpt lat="45.65114" lon="3.08897">
        <ele>557.752014</ele>
      </trkpt>
      <trkpt lat="45.65138" lon="3.08847">
        <ele>552.976135</ele>
      </trkpt>
      <trkpt lat="45.65146" lon="3.0883">
        <ele>551.855652</ele>
      </trkpt>
      <trkpt lat="45.65153" lon="3.08795">
        <ele>551.351624</ele>
      </trkpt>
      <trkpt lat="45.65134" lon="3.08794">
        <ele>556.005676</ele>
      </trkpt>
      <trkpt lat="45.65116" lon="3.08799">
        <ele>559.822937</ele>
      </trkpt>
      <trkpt lat="45.65099" lon="3.08817">
        <ele>563.844666</ele>
      </trkpt>
      <trkpt lat="45.65069" lon="3.08855">
        <ele>570.889099</ele>
      </trkpt>
      <trkpt lat="45.65047" lon="3.08893">
        <ele>575.931641</ele>
      </trkpt>
      <trkpt lat="45.65016" lon="3.08939">
        <ele>585.155151</ele>
      </trkpt>
      <trkpt lat="45.64992" lon="3.08971">
        <ele>591.850525</ele>
      </trkpt>
      <trkpt lat="45.64974" lon="3.09003">
        <ele>595.207153</ele>
      </trkpt>
      <trkpt lat="45.64956" lon="3.09034">
        <ele>599.10376</ele>
      </trkpt>
      <trkpt lat="45.64948" lon="3.09048">
        <ele>601.341248</ele>
      </trkpt>
      <trkpt lat="45.64936" lon="3.09059">
        <ele>602.511902</ele>
      </trkpt>
      <trkpt lat="45.64908" lon="3.0908">
        <ele>603.778931</ele>
      </trkpt>
      <trkpt lat="45.64896" lon="3.09091">
        <ele>603.819946</ele>
      </trkpt>
      <trkpt lat="45.64891" lon="3.09109">
        <ele>603.851318</ele>
      </trkpt>
      <trkpt lat="45.64883" lon="3.09157">
        <ele>604.512878</ele>
      </trkpt>
      <trkpt lat="45.64868" lon="3.09223">
        <ele>602.985474</ele>
      </trkpt>
      <trkpt lat="45.64851" lon="3.09269">
        <ele>602.778992</ele>
      </trkpt>
      <trkpt lat="45.64845" lon="3.09286">
        <ele>601.376709</ele>
      </trkpt>
      <trkpt lat="45.64843" lon="3.09303">
        <ele>601.215454</ele>
      </trkpt>
      <trkpt lat="45.64838" lon="3.09331">
        <ele>600.522278</ele>
      </trkpt>
      <trkpt lat="45.64837" lon="3.09374">
        <ele>601.695679</ele>
      </trkpt>
      <trkpt lat="45.64835" lon="3.09396">
        <ele>601.92688</ele>
      </trkpt>
      <trkpt lat="45.64826" lon="3.09431">
        <ele>603.479736</ele>
      </trkpt>
      <trkpt lat="45.64815" lon="3.09452">
        <ele>604.381531</ele>
      </trkpt>
      <trkpt lat="45.64806" lon="3.09434">
        <ele>600.96405</ele>
      </trkpt>
      <trkpt lat="45.64795" lon="3.09405">
        <ele>596.076477</ele>
      </trkpt>
      <trkpt lat="45.6478" lon="3.09373">
        <ele>590.953979</ele>
      </trkpt>
      <trkpt lat="45.64763" lon="3.09343">
        <ele>583.767212</ele>
      </trkpt>
      <trkpt lat="45.64754" lon="3.09323">
        <ele>580.503296</ele>
      </trkpt>
      <trkpt lat="45.64747" lon="3.093">
        <ele>577.324463</ele>
      </trkpt>
      <trkpt lat="45.64732" lon="3.09222">
        <ele>565.674988</ele>
      </trkpt>
      <trkpt lat="45.64725" lon="3.09206">
        <ele>562.768738</ele>
      </trkpt>
      <trkpt lat="45.64715" lon="3.09209">
        <ele>562.5</ele>
      </trkpt>
      <trkpt lat="45.64712" lon="3.09231">
        <ele>565.594971</ele>
      </trkpt>
      <trkpt lat="45.64705" lon="3.09249">
        <ele>568.744995</ele>
      </trkpt>
      <trkpt lat="45.6466" lon="3.09281">
        <ele>579.500488</ele>
      </trkpt>
      <trkpt lat="45.64636" lon="3.09294">
        <ele>585.438538</ele>
      </trkpt>
      <trkpt lat="45.64619" lon="3.09306">
        <ele>589.770386</ele>
      </trkpt>
      <trkpt lat="45.64591" lon="3.09319">
        <ele>596.142212</ele>
      </trkpt>
      <trkpt lat="45.64572" lon="3.0933">
        <ele>599.204224</ele>
      </trkpt>
      <trkpt lat="45.64568" lon="3.09381">
        <ele>601.383179</ele>
      </trkpt>
      <trkpt lat="45.64568" lon="3.09445">
        <ele>605.922424</ele>
      </trkpt>
      <trkpt lat="45.6457" lon="3.09487">
        <ele>610.759888</ele>
      </trkpt>
      <trkpt lat="45.64566" lon="3.09523">
        <ele>614.933655</ele>
      </trkpt>
      <trkpt lat="45.6456" lon="3.09524">
        <ele>614.256897</ele>
      </trkpt>
      <trkpt lat="45.64491" lon="3.09561">
        <ele>607.18573</ele>
      </trkpt>
      <trkpt lat="45.64464" lon="3.09565">
        <ele>604.282593</ele>
      </trkpt>
      <trkpt lat="45.64447" lon="3.09569">
        <ele>602.779663</ele>
      </trkpt>
      <trkpt lat="45.64417" lon="3.09583">
        <ele>602.716125</ele>
      </trkpt>
      <trkpt lat="45.64365" lon="3.09597">
        <ele>599.210083</ele>
      </trkpt>
      <trkpt lat="45.64333" lon="3.0961">
        <ele>597.626404</ele>
      </trkpt>
      <trkpt lat="45.64311" lon="3.09626">
        <ele>597.427795</ele>
      </trkpt>
      <trkpt lat="45.64278" lon="3.09652">
        <ele>597.161438</ele>
      </trkpt>
      <trkpt lat="45.64258" lon="3.09669">
        <ele>595.7547</ele>
      </trkpt>
      <trkpt lat="45.64247" lon="3.09686">
        <ele>595.299438</ele>
      </trkpt>
      <trkpt lat="45.64198" lon="3.09821">
        <ele>582.321533</ele>
      </trkpt>
      <trkpt lat="45.6418" lon="3.09899">
        <ele>578.524475</ele>
      </trkpt>
      <trkpt lat="45.64176" lon="3.09942">
        <ele>577.905029</ele>
      </trkpt>
      <trkpt lat="45.64172" lon="3.09931">
        <ele>577.042969</ele>
      </trkpt>
      <trkpt lat="45.64169" lon="3.09896">
        <ele>576.518738</ele>
      </trkpt>
      <trkpt lat="45.64163" lon="3.0986">
        <ele>575.321228</ele>
      </trkpt>
      <trkpt lat="45.64156" lon="3.09826">
        <ele>574.315979</ele>
      </trkpt>
      <trkpt lat="45.64146" lon="3.09791">
        <ele>572.91272</ele>
      </trkpt>
      <trkpt lat="45.64133" lon="3.09753">
        <ele>571.80896</ele>
      </trkpt>
      <trkpt lat="45.64114" lon="3.09717">
        <ele>570.092163</ele>
      </trkpt>
      <trkpt lat="45.64093" lon="3.09681">
        <ele>568.288757</ele>
      </trkpt>
      <trkpt lat="45.64066" lon="3.09638">
        <ele>565.407532</ele>
      </trkpt>
      <trkpt lat="45.64048" lon="3.09603">
        <ele>562.246704</ele>
      </trkpt>
      <trkpt lat="45.6404" lon="3.09571">
        <ele>559.869385</ele>
      </trkpt>
      <trkpt lat="45.64026" lon="3.09503">
        <ele>556.344543</ele>
      </trkpt>
      <trkpt lat="45.64021" lon="3.09442">
        <ele>554.287537</ele>
      </trkpt>
      <trkpt lat="45.64019" lon="3.09401">
        <ele>551.380005</ele>
      </trkpt>
      <trkpt lat="45.64021" lon="3.09364">
        <ele>549.179077</ele>
      </trkpt>
      <trkpt lat="45.64027" lon="3.09328">
        <ele>547.005432</ele>
      </trkpt>
      <trkpt lat="45.64032" lon="3.09304">
        <ele>544.812683</ele>
      </trkpt>
      <trkpt lat="45.64033" lon="3.09288">
        <ele>542.974731</ele>
      </trkpt>
      <trkpt lat="45.64027" lon="3.0926">
        <ele>539.876953</ele>
      </trkpt>
      <trkpt lat="45.63991" lon="3.09232">
        <ele>538.178101</ele>
      </trkpt>
      <trkpt lat="45.63974" lon="3.09215">
        <ele>537.345337</ele>
      </trkpt>
      <trkpt lat="45.63958" lon="3.0919">
        <ele>536.742493</ele>
      </trkpt>
      <trkpt lat="45.63955" lon="3.09176">
        <ele>536.612488</ele>
      </trkpt>
      <trkpt lat="45.63958" lon="3.09163">
        <ele>536.344971</ele>
      </trkpt>
      <trkpt lat="45.63972" lon="3.09149">
        <ele>535.809998</ele>
      </trkpt>
      <trkpt lat="45.6398" lon="3.09138">
        <ele>535.450012</ele>
      </trkpt>
      <trkpt lat="45.63986" lon="3.09124">
        <ele>535.117493</ele>
      </trkpt>
      <trkpt lat="45.63986" lon="3.09105">
        <ele>534.80127</ele>
      </trkpt>
      <trkpt lat="45.63983" lon="3.09087">
        <ele>534.588745</ele>
      </trkpt>
      <trkpt lat="45.63959" lon="3.09039">
        <ele>534.924377</ele>
      </trkpt>
      <trkpt lat="45.63928" lon="3.08971">
        <ele>535</ele>
      </trkpt>
      <trkpt lat="45.63874" lon="3.08847">
        <ele>540.713562</ele>
      </trkpt>
      <trkpt lat="45.63848" lon="3.08793">
        <ele>547.229492</ele>
      </trkpt>
      <trkpt lat="45.63775" lon="3.08676">
        <ele>559.149353</ele>
      </trkpt>
      <trkpt lat="45.63757" lon="3.08645">
        <ele>560.586975</ele>
      </trkpt>
      <trkpt lat="45.63716" lon="3.08588">
        <ele>565.50769</ele>
      </trkpt>
      <trkpt lat="45.63698" lon="3.08553">
        <ele>569.059937</ele>
      </trkpt>
      <trkpt lat="45.63692" lon="3.08535">
        <ele>570.787659</ele>
      </trkpt>
      <trkpt lat="45.63688" lon="3.08508">
        <ele>573.180481</ele>
      </trkpt>
      <trkpt lat="45.63676" lon="3.08469">
        <ele>577.129822</ele>
      </trkpt>
      <trkpt lat="45.63673" lon="3.08447">
        <ele>578.855286</ele>
      </trkpt>
      <trkpt lat="45.63672" lon="3.08426">
        <ele>580.176331</ele>
      </trkpt>
      <trkpt lat="45.63667" lon="3.08412">
        <ele>581.757263</ele>
      </trkpt>
      <trkpt lat="45.63657" lon="3.08404">
        <ele>583.684814</ele>
      </trkpt>
      <trkpt lat="45.63636" lon="3.08364">
        <ele>588.134583</ele>
      </trkpt>
      <trkpt lat="45.63615" lon="3.08309">
        <ele>593.3797</ele>
      </trkpt>
      <trkpt lat="45.63599" lon="3.08286">
        <ele>596.721252</ele>
      </trkpt>
      <trkpt lat="45.63585" lon="3.08237">
        <ele>602.228088</ele>
      </trkpt>
      <trkpt lat="45.63574" lon="3.08182">
        <ele>608.615417</ele>
      </trkpt>
      <trkpt lat="45.63569" lon="3.08159">
        <ele>611.544861</ele>
      </trkpt>
      <trkpt lat="45.63558" lon="3.08134">
        <ele>615.153442</ele>
      </trkpt>
      <trkpt lat="45.63553" lon="3.08105">
        <ele>619.267151</ele>
      </trkpt>
      <trkpt lat="45.63551" lon="3.08069">
        <ele>623.272827</ele>
      </trkpt>
      <trkpt lat="45.63544" lon="3.08035">
        <ele>626.909668</ele>
      </trkpt>
      <trkpt lat="45.63532" lon="3.07994">
        <ele>631.14624</ele>
      </trkpt>
      <trkpt lat="45.63526" lon="3.0796">
        <ele>635.096924</ele>
      </trkpt>
      <trkpt lat="45.63524" lon="3.07939">
        <ele>637.635193</ele>
      </trkpt>
      <trkpt lat="45.6352" lon="3.07926">
        <ele>639.364136</ele>
      </trkpt>
      <trkpt lat="45.63506" lon="3.07912">
        <ele>640.987488</ele>
      </trkpt>
      <trkpt lat="45.63498" lon="3.07884">
        <ele>643.963989</ele>
      </trkpt>
      <trkpt lat="45.63493" lon="3.07867">
        <ele>645.932129</ele>
      </trkpt>
      <trkpt lat="45.63485" lon="3.07846">
        <ele>648.391418</ele>
      </trkpt>
      <trkpt lat="45.63481" lon="3.07817">
        <ele>650.834229</ele>
      </trkpt>
      <trkpt lat="45.63476" lon="3.07807">
        <ele>651.434692</ele>
      </trkpt>
      <trkpt lat="45.63451" lon="3.07784">
        <ele>652.63031</ele>
      </trkpt>
      <trkpt lat="45.63442" lon="3.07772">
        <ele>653.423523</ele>
      </trkpt>
      <trkpt lat="45.63421" lon="3.07763">
        <ele>653.469971</ele>
      </trkpt>
      <trkpt lat="45.63413" lon="3.07752">
        <ele>654.521057</ele>
      </trkpt>
      <trkpt lat="45.63401" lon="3.07743">
        <ele>655.507202</ele>
      </trkpt>
      <trkpt lat="45.63348" lon="3.07722">
        <ele>657.331238</ele>
      </trkpt>
      <trkpt lat="45.63297" lon="3.07701">
        <ele>658.362488</ele>
      </trkpt>
      <trkpt lat="45.63276" lon="3.07689">
        <ele>658.585632</ele>
      </trkpt>
      <trkpt lat="45.6326" lon="3.07675">
        <ele>658.921875</ele>
      </trkpt>
      <trkpt lat="45.63234" lon="3.07647">
        <ele>659.80719</ele>
      </trkpt>
      <trkpt lat="45.6321" lon="3.07628">
        <ele>659.109314</ele>
      </trkpt>
      <trkpt lat="45.63178" lon="3.07596">
        <ele>659.157715</ele>
      </trkpt>
      <trkpt lat="45.63153" lon="3.07577">
        <ele>660</ele>
      </trkpt>
      <trkpt lat="45.63107" lon="3.07559">
        <ele>661.747498</ele>
      </trkpt>
      <trkpt lat="45.63086" lon="3.07556">
        <ele>661.981323</ele>
      </trkpt>
      <trkpt lat="45.63075" lon="3.07548">
        <ele>663.107666</ele>
      </trkpt>
      <trkpt lat="45.63061" lon="3.07526">
        <ele>666.525024</ele>
      </trkpt>
      <trkpt lat="45.63029" lon="3.07451">
        <ele>669.185059</ele>
      </trkpt>
      <trkpt lat="45.63017" lon="3.07429">
        <ele>667.584473</ele>
      </trkpt>
      <trkpt lat="45.63003" lon="3.07417">
        <ele>668.362854</ele>
      </trkpt>
      <trkpt lat="45.62983" lon="3.07391">
        <ele>671.620911</ele>
      </trkpt>
      <trkpt lat="45.62971" lon="3.07377">
        <ele>674.841003</ele>
      </trkpt>
      <trkpt lat="45.62941" lon="3.07369">
        <ele>677.097412</ele>
      </trkpt>
      <trkpt lat="45.62887" lon="3.07352">
        <ele>679.170715</ele>
      </trkpt>
      <trkpt lat="45.62866" lon="3.07343">
        <ele>681.654968</ele>
      </trkpt>
      <trkpt lat="45.6285" lon="3.07331">
        <ele>684.205017</ele>
      </trkpt>
      <trkpt lat="45.6284" lon="3.07321">
        <ele>686.110413</ele>
      </trkpt>
      <trkpt lat="45.6283" lon="3.07305">
        <ele>688.422607</ele>
      </trkpt>
      <trkpt lat="45.62823" lon="3.07298">
        <ele>689.546753</ele>
      </trkpt>
      <trkpt lat="45.62781" lon="3.0728">
        <ele>692.771362</ele>
      </trkpt>
      <trkpt lat="45.62762" lon="3.07269">
        <ele>694.065125</ele>
      </trkpt>
      <trkpt lat="45.62742" lon="3.07252">
        <ele>695.537476</ele>
      </trkpt>
      <trkpt lat="45.62692" lon="3.07192">
        <ele>702.565918</ele>
      </trkpt>
      <trkpt lat="45.62683" lon="3.07163">
        <ele>705.882263</ele>
      </trkpt>
      <trkpt lat="45.6267" lon="3.07118">
        <ele>710.594116</ele>
      </trkpt>
      <trkpt lat="45.62664" lon="3.07105">
        <ele>711.218262</ele>
      </trkpt>
      <trkpt lat="45.62624" lon="3.07055">
        <ele>712.928223</ele>
      </trkpt>
      <trkpt lat="45.62591" lon="3.07008">
        <ele>714.960022</ele>
      </trkpt>
      <trkpt lat="45.62575" lon="3.0699">
        <ele>716.111877</ele>
      </trkpt>
      <trkpt lat="45.62561" lon="3.06983">
        <ele>716.986755</ele>
      </trkpt>
      <trkpt lat="45.62551" lon="3.06977">
        <ele>717.692871</ele>
      </trkpt>
      <trkpt lat="45.62546" lon="3.06966">
        <ele>718.383667</ele>
      </trkpt>
      <trkpt lat="45.62548" lon="3.06953">
        <ele>718.809265</ele>
      </trkpt>
      <trkpt lat="45.62555" lon="3.06938">
        <ele>718.921997</ele>
      </trkpt>
      <trkpt lat="45.62558" lon="3.06926">
        <ele>719.342529</ele>
      </trkpt>
      <trkpt lat="45.62555" lon="3.06914">
        <ele>720.32251</ele>
      </trkpt>
      <trkpt lat="45.62548" lon="3.06905">
        <ele>721.412476</ele>
      </trkpt>
      <trkpt lat="45.62534" lon="3.06898">
        <ele>722.705017</ele>
      </trkpt>
      <trkpt lat="45.62526" lon="3.06888">
        <ele>723.859863</ele>
      </trkpt>
      <trkpt lat="45.62514" lon="3.06845">
        <ele>726.562683</ele>
      </trkpt>
      <trkpt lat="45.62505" lon="3.06835">
        <ele>727.590027</ele>
      </trkpt>
      <trkpt lat="45.62447" lon="3.06817">
        <ele>731.72998</ele>
      </trkpt>
      <trkpt lat="45.62433" lon="3.06809">
        <ele>732.866211</ele>
      </trkpt>
      <trkpt lat="45.62413" lon="3.06785">
        <ele>735.1651</ele>
      </trkpt>
      <trkpt lat="45.62401" lon="3.06778">
        <ele>736.115479</ele>
      </trkpt>
      <trkpt lat="45.62381" lon="3.06772">
        <ele>737.069702</ele>
      </trkpt>
      <trkpt lat="45.62352" lon="3.06753">
        <ele>738.290466</ele>
      </trkpt>
      <trkpt lat="45.62329" lon="3.06734">
        <ele>738.660095</ele>
      </trkpt>
      <trkpt lat="45.6231" lon="3.06712">
        <ele>738.900757</ele>
      </trkpt>
      <trkpt lat="45.62299" lon="3.06691">
        <ele>739.335022</ele>
      </trkpt>
      <trkpt lat="45.62283" lon="3.0666">
        <ele>739.724792</ele>
      </trkpt>
      <trkpt lat="45.62274" lon="3.06654">
        <ele>739.72406</ele>
      </trkpt>
      <trkpt lat="45.62262" lon="3.06654">
        <ele>739.630981</ele>
      </trkpt>
      <trkpt lat="45.62245" lon="3.06659">
        <ele>739.667175</ele>
      </trkpt>
      <trkpt lat="45.62232" lon="3.06655">
        <ele>739.968933</ele>
      </trkpt>
      <trkpt lat="45.62219" lon="3.06642">
        <ele>740.41333</ele>
      </trkpt>
      <trkpt lat="45.62183" lon="3.06593">
        <ele>741.147339</ele>
      </trkpt>
      <trkpt lat="45.62156" lon="3.06553">
        <ele>740.622498</ele>
      </trkpt>
      <trkpt lat="45.62145" lon="3.0653">
        <ele>740.054077</ele>
      </trkpt>
      <trkpt lat="45.62136" lon="3.06493">
        <ele>739.013306</ele>
      </trkpt>
      <trkpt lat="45.62133" lon="3.06467">
        <ele>738.446289</ele>
      </trkpt>
      <trkpt lat="45.62135" lon="3.06432">
        <ele>737.858765</ele>
      </trkpt>
      <trkpt lat="45.62133" lon="3.06403">
        <ele>738.038269</ele>
      </trkpt>
      <trkpt lat="45.62123" lon="3.06353">
        <ele>739.990967</ele>
      </trkpt>
      <trkpt lat="45.6211" lon="3.06308">
        <ele>741.6875</ele>
      </trkpt>
      <trkpt lat="45.62099" lon="3.06258">
        <ele>743.904968</ele>
      </trkpt>
      <trkpt lat="45.62093" lon="3.06219">
        <ele>745.897522</ele>
      </trkpt>
      <trkpt lat="45.62088" lon="3.06181">
        <ele>747.808777</ele>
      </trkpt>
      <trkpt lat="45.62065" lon="3.06075">
        <ele>751.89502</ele>
      </trkpt>
      <trkpt lat="45.62012" lon="3.05825">
        <ele>759.133728</ele>
      </trkpt>
      <trkpt lat="45.62007" lon="3.05776">
        <ele>761.546265</ele>
      </trkpt>
      <trkpt lat="45.62005" lon="3.05671">
        <ele>767.859985</ele>
      </trkpt>
      <trkpt lat="45.62005" lon="3.0561">
        <ele>771.695007</ele>
      </trkpt>
      <trkpt lat="45.62013" lon="3.05536">
        <ele>776.268738</ele>
      </trkpt>
      <trkpt lat="45.62016" lon="3.05488">
        <ele>779.73999</ele>
      </trkpt>
      <trkpt lat="45.62013" lon="3.05469">
        <ele>781.266235</ele>
      </trkpt>
      <trkpt lat="45.62008" lon="3.05448">
        <ele>783.040771</ele>
      </trkpt>
      <trkpt lat="45.61991" lon="3.05411">
        <ele>786.896057</ele>
      </trkpt>
      <trkpt lat="45.61986" lon="3.05389">
        <ele>788.815063</ele>
      </trkpt>
      <trkpt lat="45.61978" lon="3.05288">
        <ele>793.399292</ele>
      </trkpt>
      <trkpt lat="45.61973" lon="3.05272">
        <ele>793.941772</ele>
      </trkpt>
      <trkpt lat="45.61969" lon="3.05262">
        <ele>794.238892</ele>
      </trkpt>
      <trkpt lat="45.61973" lon="3.05257">
        <ele>794.535339</ele>
      </trkpt>
      <trkpt lat="45.61978" lon="3.05246">
        <ele>795.192871</ele>
      </trkpt>
      <trkpt lat="45.61976" lon="3.05223">
        <ele>796.181519</ele>
      </trkpt>
      <trkpt lat="45.61968" lon="3.05213">
        <ele>796.214661</ele>
      </trkpt>
      <trkpt lat="45.61962" lon="3.05212">
        <ele>795.909546</ele>
      </trkpt>
      <trkpt lat="45.61969" lon="3.05198">
        <ele>796.905762</ele>
      </trkpt>
      <trkpt lat="45.61978" lon="3.05151">
        <ele>799.307251</ele>
      </trkpt>
      <trkpt lat="45.61988" lon="3.05108">
        <ele>802.434998</ele>
      </trkpt>
      <trkpt lat="45.61994" lon="3.05087">
        <ele>804.275024</ele>
      </trkpt>
      <trkpt lat="45.61996" lon="3.05051">
        <ele>806.676331</ele>
      </trkpt>
      <trkpt lat="45.62001" lon="3.05019">
        <ele>809.27002</ele>
      </trkpt>
      <trkpt lat="45.62009" lon="3.04987">
        <ele>813.321411</ele>
      </trkpt>
      <trkpt lat="45.62038" lon="3.04916">
        <ele>821.861145</ele>
      </trkpt>
      <trkpt lat="45.62047" lon="3.04901">
        <ele>823.047241</ele>
      </trkpt>
      <trkpt lat="45.62059" lon="3.04888">
        <ele>825.269348</ele>
      </trkpt>
      <trkpt lat="45.6209" lon="3.04865">
        <ele>830.895142</ele>
      </trkpt>
      <trkpt lat="45.62114" lon="3.0484">
        <ele>833.222534</ele>
      </trkpt>
      <trkpt lat="45.62167" lon="3.04779">
        <ele>838.202515</ele>
      </trkpt>
      <trkpt lat="45.62177" lon="3.04764">
        <ele>839.07251</ele>
      </trkpt>
      <trkpt lat="45.6219" lon="3.04721">
        <ele>841.494019</ele>
      </trkpt>
      <trkpt lat="45.62198" lon="3.04694">
        <ele>843.369263</ele>
      </trkpt>
      <trkpt lat="45.62234" lon="3.04691">
        <ele>848.862488</ele>
      </trkpt>
      <trkpt lat="45.62249" lon="3.04695">
        <ele>850.537476</ele>
      </trkpt>
      <trkpt lat="45.62298" lon="3.04686">
        <ele>854.174988</ele>
      </trkpt>
    </trkseg>
  </trk>
</gpx>